Observation data for Coyanosa on 02/14/2020      Previous  Date  Next       Current Mesonet Observations  Soil Data  Daily Summary Page  Observations in Plain Language
KCO1 140600Z 07009KT 04/01 A3022 RMK A01 T00420011  RH  080%=      5-min Rain = 0
KCO1 140601Z 07007KT 04/01 A3022 RMK A01 T00420011  RH  080%=      5-min Rain = 0
KCO1 140602Z 07009KT 04/01 A3022 RMK A01 T00410011  RH  081%=      5-min Rain = 0
KCO1 140603Z 07009KT 04/01 A3022 RMK A01 T00410011  RH  081%=      5-min Rain = 0
KCO1 140604Z 08009KT 04/01 A3022 RMK A01 T00400011  RH  081%=      5-min Rain = 0
KCO1 140605Z 08008KT 04/01 A3022 RMK A01 T00400011  RH  081%=      5-min Rain = 0
KCO1 140606Z 08008KT 04/01 A3022 RMK A01 T00400011  RH  081%=      5-min Rain = 0
KCO1 140607Z 08008KT 04/01 A3022 RMK A01 T00390010  RH  082%=      5-min Rain = 0
KCO1 140608Z 08009KT 04/01 A3022 RMK A01 T00390011  RH  082%=      5-min Rain = 0
KCO1 140609Z 08009KT 04/01 A3022 RMK A01 T00390011  RH  082%=      5-min Rain = 0
KCO1 140610Z 08008KT 04/01 A3022 RMK A01 T00390011  RH  082%=      5-min Rain = 0
KCO1 140611Z 08007KT 04/01 A3022 RMK A01 T00390011  RH  082%=      5-min Rain = 0
KCO1 140612Z 08008KT 04/01 A3022 RMK A01 T00380010  RH  082%=      5-min Rain = 0
KCO1 140613Z 08008KT 04/01 A3022 RMK A01 T00380010  RH  082%=      5-min Rain = 0
KCO1 140614Z 08008KT 04/01 A3022 RMK A01 T00380011  RH  083%=      5-min Rain = 0
KCO1 140615Z 08009KT 04/01 A3022 RMK A01 T00380011  RH  083%=      5-min Rain = 0
KCO1 140616Z 09009KT 04/01 A3022 RMK A01 T00380011  RH  083%=      5-min Rain = 0
KCO1 140617Z 08010KT 04/01 A3022 RMK A01 T00370011  RH  083%=      5-min Rain = 0
KCO1 140618Z 08008KT 04/01 A3022 RMK A01 T00370011  RH  083%=      5-min Rain = 0
KCO1 140619Z 08008KT 04/01 A3022 RMK A01 T00370011  RH  083%=      5-min Rain = 0
KCO1 140620Z 08009KT 04/01 A3022 RMK A01 T00370011  RH  083%=      5-min Rain = 0
KCO1 140621Z 08010KT 04/01 A3022 RMK A01 T00370010  RH  083%=      5-min Rain = 0
KCO1 140622Z 08009KT 04/01 A3022 RMK A01 T00370011  RH  083%=      5-min Rain = 0
KCO1 140623Z 08010KT 04/01 A3022 RMK A01 T00370010  RH  083%=      5-min Rain = 0
KCO1 140624Z 08010KT 04/01 A3022 RMK A01 T00370011  RH  083%=      5-min Rain = 0
KCO1 140625Z 08010KT 04/01 A3022 RMK A01 T00370011  RH  083%=      5-min Rain = 0
KCO1 140626Z 08010KT 04/01 A3022 RMK A01 T00360010  RH  083%=      5-min Rain = 0
KCO1 140627Z 08010KT 04/01 A3022 RMK A01 T00360010  RH  083%=      5-min Rain = 0
KCO1 140628Z 08009KT 04/01 A3022 RMK A01 T00360011  RH  083%=      5-min Rain = 0
KCO1 140629Z 09010KT 04/01 A3022 RMK A01 T00360011  RH  083%=      5-min Rain = 0
KCO1 140630Z 08010KT 04/01 A3022 RMK A01 T00360010  RH  083%=      5-min Rain = 0
KCO1 140631Z 08009KT 04/01 A3023 RMK A01 T00360010  RH  083%=      5-min Rain = 0
KCO1 140632Z 08009KT 04/01 A3023 RMK A01 T00360010  RH  083%=      5-min Rain = 0
KCO1 140633Z 08008KT 04/01 A3023 RMK A01 T00350010  RH  084%=      5-min Rain = 0
KCO1 140634Z 08008KT 04/01 A3023 RMK A01 T00350010  RH  084%=      5-min Rain = 0
KCO1 140635Z 08009KT 03/01 A3023 RMK A01 T00340009  RH  084%=      5-min Rain = 0
KCO1 140636Z 08009KT 03/01 A3023 RMK A01 T00340010  RH  084%=      5-min Rain = 0
KCO1 140637Z 09009KT 03/01 A3023 RMK A01 T00340009  RH  084%=      5-min Rain = 0
KCO1 140638Z 08009KT 03/01 A3023 RMK A01 T00340010  RH  084%=      5-min Rain = 0
KCO1 140639Z 08009KT 03/01 A3023 RMK A01 T00340010  RH  084%=      5-min Rain = 0
KCO1 140640Z 09010KT 03/01 A3023 RMK A01 T00340010  RH  084%=      5-min Rain = 0
KCO1 140641Z 09010KT 03/01 A3023 RMK A01 T00340010  RH  084%=      5-min Rain = 0
KCO1 140642Z 09010KT 03/01 A3023 RMK A01 T00340009  RH  084%=      5-min Rain = 0
KCO1 140643Z 08010KT 03/01 A3023 RMK A01 T00340010  RH  084%=      5-min Rain = 0
KCO1 140644Z 09009KT 03/01 A3023 RMK A01 T00340010  RH  084%=      5-min Rain = 0
KCO1 140645Z 09010KT 03/01 A3023 RMK A01 T00330009  RH  084%=      5-min Rain = 0
KCO1 140646Z 09009KT 03/01 A3023 RMK A01 T00330009  RH  084%=      5-min Rain = 0
KCO1 140647Z 09009KT 03/01 A3023 RMK A01 T00330009  RH  084%=      5-min Rain = 0
KCO1 140648Z 09008KT 03/01 A3023 RMK A01 T00330009  RH  084%=      5-min Rain = 0
KCO1 140649Z 09009KT 03/01 A3023 RMK A01 T00330009  RH  084%=      5-min Rain = 0
KCO1 140650Z 08010KT 03/01 A3023 RMK A01 T00330009  RH  084%=      5-min Rain = 0
KCO1 140651Z 08010KT 03/01 A3023 RMK A01 T00330009  RH  084%=      5-min Rain = 0
KCO1 140652Z 09010KT 03/01 A3023 RMK A01 T00330009  RH  084%=      5-min Rain = 0
KCO1 140653Z 08010KT 03/01 A3023 RMK A01 T00330009  RH  084%=      5-min Rain = 0
KCO1 140654Z 08009KT 03/01 A3023 RMK A01 T00330009  RH  084%=      5-min Rain = 0
KCO1 140655Z 08009KT 03/01 A3023 RMK A01 T00330009  RH  084%=      5-min Rain = 0
KCO1 140656Z 08010KT 03/01 A3023 RMK A01 T00330008  RH  084%=      5-min Rain = 0
KCO1 140657Z 08010KT 03/01 A3023 RMK A01 T00320008  RH  084%=      5-min Rain = 0
KCO1 140658Z 08009KT 03/01 A3023 RMK A01 T00320008  RH  084%=      5-min Rain = 0
KCO1 140659Z 08008KT 03/01 A3023 RMK A01 T00320008  RH  084%=      5-min Rain = 0
KCO1 140700Z 08009KT 03/01 A3023 RMK A01 T00320008  RH  084%=      5-min Rain = 0
KCO1 140701Z 08008KT 03/01 A3023 RMK A01 T00310008  RH  084%=      5-min Rain = 0
KCO1 140702Z 08008KT 03/01 A3023 RMK A01 T00310008  RH  085%=      5-min Rain = 0
KCO1 140703Z 08008KT 03/01 A3023 RMK A01 T00310007  RH  085%=      5-min Rain = 0
KCO1 140704Z 08009KT 03/01 A3023 RMK A01 T00300007  RH  085%=      5-min Rain = 0
KCO1 140705Z 08009KT 03/01 A3023 RMK A01 T00300007  RH  085%=      5-min Rain = 0
KCO1 140706Z 08009KT 03/01 A3023 RMK A01 T00300007  RH  085%=      5-min Rain = 0
KCO1 140707Z 08008KT 03/01 A3023 RMK A01 T00300007  RH  085%=      5-min Rain = 0
KCO1 140708Z 08009KT 03/01 A3023 RMK A01 T00300007  RH  085%=      5-min Rain = 0
KCO1 140709Z 08008KT 03/01 A3023 RMK A01 T00290007  RH  085%=      5-min Rain = 0
KCO1 140710Z 08009KT 03/01 A3023 RMK A01 T00300007  RH  085%=      5-min Rain = 0
KCO1 140711Z 08008KT 03/01 A3023 RMK A01 T00300007  RH  085%=      5-min Rain = 0
KCO1 140712Z 08009KT 03/01 A3023 RMK A01 T00290007  RH  085%=      5-min Rain = 0
KCO1 140713Z 08008KT 03/01 A3023 RMK A01 T00290007  RH  085%=      5-min Rain = 0
KCO1 140714Z 08009KT 03/01 A3023 RMK A01 T00290007  RH  085%=      5-min Rain = 0
KCO1 140715Z 08010KT 03/01 A3023 RMK A01 T00290007  RH  085%=      5-min Rain = 0
KCO1 140716Z 08010KT 03/01 A3023 RMK A01 T00290007  RH  085%=      5-min Rain = 0
KCO1 140717Z 08008KT 03/01 A3023 RMK A01 T00290007  RH  085%=      5-min Rain = 0
KCO1 140718Z 08009KT 03/01 A3023 RMK A01 T00290007  RH  085%=      5-min Rain = 0
KCO1 140719Z 08009KT 03/01 A3023 RMK A01 T00290006  RH  085%=      5-min Rain = 0
KCO1 140720Z 08010KT 03/01 A3023 RMK A01 T00290006  RH  085%=      5-min Rain = 0
KCO1 140721Z 08009KT 03/01 A3023 RMK A01 T00290006  RH  085%=      5-min Rain = 0
KCO1 140722Z 08009KT 03/01 A3023 RMK A01 T00290006  RH  085%=      5-min Rain = 0
KCO1 140723Z 08008KT 03/01 A3023 RMK A01 T00280006  RH  085%=      5-min Rain = 0
KCO1 140724Z 08008KT 03/01 A3023 RMK A01 T00280005  RH  085%=      5-min Rain = 0
KCO1 140725Z 08008KT 03/01 A3023 RMK A01 T00280005  RH  085%=      5-min Rain = 0
KCO1 140726Z 08008KT 03/01 A3023 RMK A01 T00280005  RH  085%=      5-min Rain = 0
KCO1 140727Z 08008KT 03/01 A3023 RMK A01 T00280005  RH  085%=      5-min Rain = 0
KCO1 140728Z 08007KT 03/01 A3023 RMK A01 T00270005  RH  085%=      5-min Rain = 0
KCO1 140729Z 08009KT 03/01 A3023 RMK A01 T00270005  RH  085%=      5-min Rain = 0
KCO1 140730Z 08008KT 03/01 A3023 RMK A01 T00270005  RH  085%=      5-min Rain = 0
KCO1 140731Z 08009KT 03/00 A3023 RMK A01 T00260004  RH  086%=      5-min Rain = 0
KCO1 140732Z 08007KT 03/00 A3023 RMK A01 T00260004  RH  086%=      5-min Rain = 0
KCO1 140733Z 08007KT 03/01 A3023 RMK A01 T00260005  RH  086%=      5-min Rain = 0
KCO1 140734Z 08007KT 03/01 A3023 RMK A01 T00260005  RH  086%=      5-min Rain = 0
KCO1 140735Z 08008KT 03/00 A3023 RMK A01 T00250004  RH  086%=      5-min Rain = 0
KCO1 140736Z 08007KT 03/01 A3023 RMK A01 T00260005  RH  086%=      5-min Rain = 0
KCO1 140737Z 08006KT 03/00 A3023 RMK A01 T00250004  RH  086%=      5-min Rain = 0
KCO1 140738Z 08008KT 03/00 A3023 RMK A01 T00250004  RH  086%=      5-min Rain = 0
KCO1 140739Z 08008KT 03/00 A3023 RMK A01 T00250004  RH  086%=      5-min Rain = 0
KCO1 140740Z 08008KT 02/00 A3023 RMK A01 T00240004  RH  086%=      5-min Rain = 0
KCO1 140741Z 08008KT 02/00 A3023 RMK A01 T00240003  RH  086%=      5-min Rain = 0
KCO1 140742Z 08009KT 02/00 A3023 RMK A01 T00240003  RH  086%=      5-min Rain = 0
KCO1 140743Z 07010KT 02/00 A3023 RMK A01 T00240004  RH  086%=      5-min Rain = 0
KCO1 140744Z 08010KT 02/00 A3023 RMK A01 T00240004  RH  086%=      5-min Rain = 0
KCO1 140745Z 08009KT 02/00 A3023 RMK A01 T00240004  RH  086%=      5-min Rain = 0
KCO1 140746Z 08009KT 02/00 A3023 RMK A01 T00240003  RH  086%=      5-min Rain = 0
KCO1 140747Z 08008KT 02/00 A3023 RMK A01 T00240003  RH  086%=      5-min Rain = 0
KCO1 140748Z 08009KT 02/00 A3023 RMK A01 T00240003  RH  086%=      5-min Rain = 0
KCO1 140749Z 08008KT 02/00 A3023 RMK A01 T00240003  RH  086%=      5-min Rain = 0
KCO1 140750Z 08008KT 02/00 A3023 RMK A01 T00240003  RH  086%=      5-min Rain = 0
KCO1 140751Z 08009KT 02/00 A3023 RMK A01 T00240003  RH  086%=      5-min Rain = 0
KCO1 140752Z 09008KT 02/00 A3023 RMK A01 T00230003  RH  086%=      5-min Rain = 0
KCO1 140753Z 09008KT 02/00 A3023 RMK A01 T00240003  RH  086%=      5-min Rain = 0
KCO1 140754Z 09006KT 02/00 A3023 RMK A01 T00230003  RH  086%=      5-min Rain = 0
KCO1 140755Z 09008KT 02/00 A3023 RMK A01 T00230003  RH  086%=      5-min Rain = 0
KCO1 140756Z 09008KT 02/00 A3023 RMK A01 T00230002  RH  086%=      5-min Rain = 0
KCO1 140757Z 09007KT 02/00 A3023 RMK A01 T00230003  RH  086%=      5-min Rain = 0
KCO1 140758Z 09010KT 02/00 A3023 RMK A01 T00230003  RH  086%=      5-min Rain = 0
KCO1 140759Z 09009KT 02/00 A3023 RMK A01 T00230003  RH  086%=      5-min Rain = 0
KCO1 140800Z 09009KT 02/00 A3023 RMK A01 T00230003  RH  086%=      5-min Rain = 0
KCO1 140801Z 09009KT 02/00 A3023 RMK A01 T00230002  RH  086%=      5-min Rain = 0
KCO1 140802Z 09009KT 02/00 A3023 RMK A01 T00230002  RH  086%=      5-min Rain = 0
KCO1 140803Z 09008KT 02/00 A3023 RMK A01 T00230002  RH  086%=      5-min Rain = 0
KCO1 140804Z 09009KT 02/00 A3023 RMK A01 T00230002  RH  086%=      5-min Rain = 0
KCO1 140805Z 09008KT 02/00 A3023 RMK A01 T00230002  RH  086%=      5-min Rain = 0
KCO1 140806Z 09007KT 02/00 A3023 RMK A01 T00220002  RH  086%=      5-min Rain = 0
KCO1 140807Z 09008KT 02/00 A3023 RMK A01 T00220001  RH  086%=      5-min Rain = 0
KCO1 140808Z 09009KT 02/00 A3023 RMK A01 T00220001  RH  086%=      5-min Rain = 0
KCO1 140809Z 09009KT 02/00 A3023 RMK A01 T00220002  RH  086%=      5-min Rain = 0
KCO1 140810Z 09008KT 02/00 A3023 RMK A01 T00220002  RH  087%=      5-min Rain = 0
KCO1 140811Z 09009KT 02/00 A3023 RMK A01 T00220001  RH  086%=      5-min Rain = 0
KCO1 140812Z 09009KT 02/00 A3023 RMK A01 T00220002  RH  087%=      5-min Rain = 0
KCO1 140813Z 09010KT 02/00 A3023 RMK A01 T00220002  RH  087%=      5-min Rain = 0
KCO1 140814Z 08009KT 02/00 A3023 RMK A01 T00220002  RH  087%=      5-min Rain = 0
KCO1 140815Z 08010KT 02/00 A3023 RMK A01 T00220002  RH  087%=      5-min Rain = 0
KCO1 140816Z 08009KT 02/00 A3023 RMK A01 T00220001  RH  086%=      5-min Rain = 0
KCO1 140817Z 09009KT 02/00 A3023 RMK A01 T00210001  RH  086%=      5-min Rain = 0
KCO1 140818Z 09011KT 02/00 A3023 RMK A01 T00210001  RH  087%=      5-min Rain = 0
KCO1 140819Z 08010KT 02/00 A3023 RMK A01 T00210001  RH  087%=      5-min Rain = 0
KCO1 140820Z 09009KT 02/00 A3023 RMK A01 T00210002  RH  087%=      5-min Rain = 0
KCO1 140821Z 09008KT 02/00 A3023 RMK A01 T00210001  RH  087%=      5-min Rain = 0
KCO1 140822Z 08009KT 02/00 A3023 RMK A01 T00210001  RH  087%=      5-min Rain = 0
KCO1 140823Z 09010KT 02/00 A3023 RMK A01 T00210001  RH  087%=      5-min Rain = 0
KCO1 140824Z 09010KT 02/00 A3023 RMK A01 T00210001  RH  087%=      5-min Rain = 0
KCO1 140825Z 09010KT 02/00 A3023 RMK A01 T00210001  RH  087%=      5-min Rain = 0
KCO1 140826Z 09009KT 02/00 A3023 RMK A01 T00210001  RH  087%=      5-min Rain = 0
KCO1 140827Z 09010KT 02/00 A3023 RMK A01 T00210001  RH  087%=      5-min Rain = 0
KCO1 140828Z 10010KT 02/00 A3023 RMK A01 T00210001  RH  087%=      5-min Rain = 0
KCO1 140829Z 10009KT 02/00 A3023 RMK A01 T00210001  RH  087%=      5-min Rain = 0
KCO1 140830Z 10010KT 02/00 A3023 RMK A01 T00210001  RH  086%=      5-min Rain = 0
KCO1 140831Z 10011KT 02/00 A3023 RMK A01 T00210001  RH  086%=      5-min Rain = 0
KCO1 140832Z 10011KT 02/00 A3023 RMK A01 T00210001  RH  086%=      5-min Rain = 0
KCO1 140833Z 10009KT 02/00 A3023 RMK A01 T00210001  RH  086%=      5-min Rain = 0
KCO1 140834Z 10012KT 02/00 A3023 RMK A01 T00210001  RH  086%=      5-min Rain = 0
KCO1 140835Z 10010KT 02/00 A3023 RMK A01 T00220001  RH  086%=      5-min Rain = 0
KCO1 140836Z 09009KT 02/00 A3023 RMK A01 T00220001  RH  086%=      5-min Rain = 0
KCO1 140837Z 09010KT 02/00 A3023 RMK A01 T00220001  RH  086%=      5-min Rain = 0
KCO1 140838Z 09009KT 02/00 A3023 RMK A01 T00220001  RH  086%=      5-min Rain = 0
KCO1 140839Z 09009KT 02/00 A3023 RMK A01 T00210000  RH  086%=      5-min Rain = 0
KCO1 140840Z 09008KT 02/00 A3023 RMK A01 T00210000  RH  086%=      5-min Rain = 0
KCO1 140841Z 09010KT 02/00 A3023 RMK A01 T00210001  RH  086%=      5-min Rain = 0
KCO1 140842Z 09012KT 02/00 A3023 RMK A01 T00210000  RH  086%=      5-min Rain = 0
KCO1 140843Z 09010KT 02/00 A3023 RMK A01 T00210000  RH  087%=      5-min Rain = 0
KCO1 140844Z 09009KT 02/00 A3023 RMK A01 T00210001  RH  087%=      5-min Rain = 0
KCO1 140845Z 09010KT 02/00 A3023 RMK A01 T00210000  RH  087%=      5-min Rain = 0
KCO1 140846Z 09011KT 02/00 A3023 RMK A01 T00210001  RH  087%=      5-min Rain = 0
KCO1 140847Z 09010KT 02/00 A3023 RMK A01 T00210001  RH  087%=      5-min Rain = 0
KCO1 140848Z 08011KT 02/00 A3023 RMK A01 T00210001  RH  087%=      5-min Rain = 0
KCO1 140849Z 09010KT 02/00 A3023 RMK A01 T00210001  RH  087%=      5-min Rain = 0
KCO1 140850Z 09010KT 02/00 A3023 RMK A01 T00210001  RH  086%=      5-min Rain = 0
KCO1 140851Z 09010KT 02/00 A3023 RMK A01 T00210001  RH  087%=      5-min Rain = 0
KCO1 140852Z 09010KT 02/00 A3023 RMK A01 T00210000  RH  086%=      5-min Rain = 0
KCO1 140853Z 09010KT 02/00 A3023 RMK A01 T00210001  RH  086%=      5-min Rain = 0
KCO1 140854Z 09011KT 02/00 A3023 RMK A01 T00210000  RH  086%=      5-min Rain = 0
KCO1 140855Z 09011KT 02/00 A3023 RMK A01 T00210000  RH  086%=      5-min Rain = 0
KCO1 140856Z 09008KT 02/00 A3023 RMK A01 T00210000  RH  086%=      5-min Rain = 0
KCO1 140857Z 09010KT 02/00 A3023 RMK A01 T00210000  RH  086%=      5-min Rain = 0
KCO1 140858Z 09011KT 02/00 A3023 RMK A01 T00210000  RH  086%=      5-min Rain = 0
KCO1 140859Z 09011KT 02/00 A3023 RMK A01 T00210000  RH  086%=      5-min Rain = 0
KCO1 140900Z 09010KT 02/00 A3023 RMK A01 T00210000  RH  086%=      5-min Rain = 0
KCO1 140901Z 09011KT 02/00 A3023 RMK A01 T002100-0  RH  086%=      5-min Rain = 0
KCO1 140902Z 09010KT 02/00 A3023 RMK A01 T00210000  RH  086%=      5-min Rain = 0
KCO1 140903Z 09010KT 02/00 A3023 RMK A01 T002100-0  RH  086%=      5-min Rain = 0
KCO1 140904Z 09009KT 02/00 A3023 RMK A01 T00210000  RH  086%=      5-min Rain = 0
KCO1 140905Z 09010KT 02/00 A3023 RMK A01 T002100-0  RH  086%=      5-min Rain = 0
KCO1 140906Z 09010KT 02/00 A3023 RMK A01 T002100-0  RH  086%=      5-min Rain = 0
KCO1 140907Z 09009KT 02/00 A3023 RMK A01 T002000-0  RH  086%=      5-min Rain = 0
KCO1 140908Z 09009KT 02/00 A3023 RMK A01 T002000-0  RH  086%=      5-min Rain = 0
KCO1 140909Z 09009KT 02/00 A3023 RMK A01 T002000-0  RH  086%=      5-min Rain = 0
KCO1 140910Z 09009KT 02/M00 A3023 RMK A01 T00191001  RH  086%=      5-min Rain = 0
KCO1 140911Z 09009KT 02/M00 A3023 RMK A01 T00191001  RH  086%=      5-min Rain = 0
KCO1 140912Z 09008KT 02/M00 A3023 RMK A01 T00191001  RH  086%=      5-min Rain = 0
KCO1 140913Z 09008KT 02/M00 A3023 RMK A01 T00191001  RH  087%=      5-min Rain = 0
KCO1 140914Z 09009KT 02/M00 A3023 RMK A01 T00191001  RH  087%=      5-min Rain = 0
KCO1 140915Z 09008KT 02/M00 A3023 RMK A01 T00181001  RH  087%=      5-min Rain = 0
KCO1 140916Z 09010KT 02/M00 A3023 RMK A01 T00181001  RH  087%=      5-min Rain = 0
KCO1 140917Z 08009KT 02/M00 A3023 RMK A01 T00181001  RH  087%=      5-min Rain = 0
KCO1 140918Z 09009KT 02/M00 A3024 RMK A01 T00181001  RH  087%=      5-min Rain = 0
KCO1 140919Z 09011KT 02/M00 A3024 RMK A01 T00181001  RH  087%=      5-min Rain = 0
KCO1 140920Z 09009KT 02/M00 A3024 RMK A01 T00181001  RH  087%=      5-min Rain = 0
KCO1 140921Z 08008KT 02/M00 A3024 RMK A01 T00181002  RH  087%=      5-min Rain = 0
KCO1 140922Z 09010KT 02/M00 A3024 RMK A01 T00181002  RH  087%=      5-min Rain = 0
KCO1 140923Z 08011KT 02/M00 A3024 RMK A01 T00171002  RH  087%=      5-min Rain = 0
KCO1 140924Z 08009KT 02/M00 A3024 RMK A01 T00171002  RH  087%=      5-min Rain = 0
KCO1 140925Z 08010KT 02/M00 A3024 RMK A01 T00171002  RH  087%=      5-min Rain = 0
KCO1 140926Z 09009KT 02/M00 A3024 RMK A01 T00171002  RH  087%=      5-min Rain = 0
KCO1 140927Z 08008KT 02/M00 A3024 RMK A01 T00171002  RH  087%=      5-min Rain = 0
KCO1 140928Z 07006G11KT 02/M00 A3024 RMK A01 T00171002  RH  087%=      5-min Rain = 0
KCO1 140929Z 08008KT 02/M00 A3024 RMK A01 T00161003  RH  087%=      5-min Rain = 0
KCO1 140930Z 08007KT 01/M00 A3024 RMK A01 T00141004  RH  087%=      5-min Rain = 0
KCO1 140931Z 08008KT 01/M01 A3024 RMK A01 T00141005  RH  087%=      5-min Rain = 0
KCO1 140932Z 08007KT 01/M01 A3024 RMK A01 T00131005  RH  088%=      5-min Rain = 0
KCO1 140933Z 08008KT 01/M01 A3024 RMK A01 T00121005  RH  088%=      5-min Rain = 0
KCO1 140934Z 08007KT 01/M01 A3024 RMK A01 T00121005  RH  088%=      5-min Rain = 0
KCO1 140935Z 08009KT 01/M01 A3024 RMK A01 T00121005  RH  089%=      5-min Rain = 0
KCO1 140936Z 08008KT 01/M01 A3024 RMK A01 T00111005  RH  089%=      5-min Rain = 0
KCO1 140937Z 07008KT 01/M01 A3024 RMK A01 T00111005  RH  089%=      5-min Rain = 0
KCO1 140938Z 08008KT 01/M00 A3024 RMK A01 T00111004  RH  090%=      5-min Rain = 0
KCO1 140939Z 08009KT 01/M01 A3024 RMK A01 T00111005  RH  090%=      5-min Rain = 0
KCO1 140940Z 08008KT 01/M01 A3024 RMK A01 T00101005  RH  090%=      5-min Rain = 0
KCO1 140941Z 07008KT 01/M01 A3024 RMK A01 T00101005  RH  090%=      5-min Rain = 0
KCO1 140942Z 07008KT 01/M01 A3024 RMK A01 T00101005  RH  090%=      5-min Rain = 0
KCO1 140943Z 08008KT 01/M01 A3024 RMK A01 T00091005  RH  090%=      5-min Rain = 0
KCO1 140944Z 09007KT 01/M01 A3024 RMK A01 T00101005  RH  090%=      5-min Rain = 0
KCO1 140945Z 08008KT 01/M01 A3024 RMK A01 T00091005  RH  090%=      5-min Rain = 0
KCO1 140946Z 08007KT 01/M01 A3024 RMK A01 T00091005  RH  090%=      5-min Rain = 0
KCO1 140947Z 07008KT 01/M01 A3024 RMK A01 T00091005  RH  090%=      5-min Rain = 0
KCO1 140948Z 08009KT 01/M01 A3024 RMK A01 T00091005  RH  091%=      5-min Rain = 0
KCO1 140949Z 07009KT 01/M01 A3024 RMK A01 T00091005  RH  091%=      5-min Rain = 0
KCO1 140950Z 08009KT 01/M01 A3024 RMK A01 T00081005  RH  091%=      5-min Rain = 0
KCO1 140951Z 08008KT 01/M01 A3024 RMK A01 T00091005  RH  091%=      5-min Rain = 0
KCO1 140952Z 08009KT 01/M01 A3024 RMK A01 T00081005  RH  091%=      5-min Rain = 0
KCO1 140953Z 08009KT 01/M01 A3024 RMK A01 T00081005  RH  091%=      5-min Rain = 0
KCO1 140954Z 08008KT 01/M01 A3024 RMK A01 T00081005  RH  091%=      5-min Rain = 0
KCO1 140955Z 08009KT 01/M01 A3024 RMK A01 T00081005  RH  091%=      5-min Rain = 0
KCO1 140956Z 08010KT 01/M01 A3024 RMK A01 T00081006  RH  091%=      5-min Rain = 0
KCO1 140957Z 08009KT 01/M01 A3024 RMK A01 T00081005  RH  091%=      5-min Rain = 0
KCO1 140958Z 08007KT 01/M01 A3024 RMK A01 T00071005  RH  091%=      5-min Rain = 0
KCO1 140959Z 09008KT 01/M01 A3024 RMK A01 T00071006  RH  091%=      5-min Rain = 0
KCO1 141000Z 08009KT 01/M01 A3024 RMK A01 T00071006  RH  091%=      5-min Rain = 0
KCO1 141001Z 08010KT 01/M01 A3024 RMK A01 T00071006  RH  091%=      5-min Rain = 0
KCO1 141002Z 09010KT 01/M01 A3024 RMK A01 T00071006  RH  091%=      5-min Rain = 0
KCO1 141003Z 09008KT 01/M01 A3024 RMK A01 T00071006  RH  092%=      5-min Rain = 0
KCO1 141004Z 09008KT 01/M01 A3024 RMK A01 T00071005  RH  092%=      5-min Rain = 0
KCO1 141005Z 09008KT 01/M01 A3024 RMK A01 T00071006  RH  091%=      5-min Rain = 0
KCO1 141006Z 09009KT 01/M01 A3024 RMK A01 T00071005  RH  092%=      5-min Rain = 0
KCO1 141007Z 09008KT 01/M01 A3024 RMK A01 T00071005  RH  092%=      5-min Rain = 0
KCO1 141008Z 09008KT 01/M01 A3024 RMK A01 T00071005  RH  092%=      5-min Rain = 0
KCO1 141009Z 09008KT 01/M01 A3024 RMK A01 T00071006  RH  092%=      5-min Rain = 0
KCO1 141010Z 08009KT 01/M01 A3024 RMK A01 T00061006  RH  092%=      5-min Rain = 0
KCO1 141011Z 08010KT 01/M01 A3024 RMK A01 T00061006  RH  092%=      5-min Rain = 0
KCO1 141012Z 08008KT 01/M01 A3024 RMK A01 T00061006  RH  092%=      5-min Rain = 0
KCO1 141013Z 07007KT 01/M01 A3024 RMK A01 T00061006  RH  092%=      5-min Rain = 0
KCO1 141014Z 08008KT 01/M01 A3024 RMK A01 T00051007  RH  092%=      5-min Rain = 0
KCO1 141015Z 08007KT 01/M01 A3024 RMK A01 T00051007  RH  092%=      5-min Rain = 0
KCO1 141016Z 09008KT 01/M01 A3024 RMK A01 T00051007  RH  092%=      5-min Rain = 0
KCO1 141017Z 08008KT 01/M01 A3024 RMK A01 T00051007  RH  092%=      5-min Rain = 0
KCO1 141018Z 09009KT 00/M01 A3024 RMK A01 T00041007  RH  092%=      5-min Rain = 0
KCO1 141019Z 08010KT 00/M01 A3024 RMK A01 T00041007  RH  092%=      5-min Rain = 0
KCO1 141020Z 08009KT 00/M01 A3023 RMK A01 T00041007  RH  092%=      5-min Rain = 0
KCO1 141021Z 08008KT 01/M01 A3023 RMK A01 T00051007  RH  092%=      5-min Rain = 0
KCO1 141022Z 08009KT 00/M01 A3023 RMK A01 T00041007  RH  092%=      5-min Rain = 0
KCO1 141023Z 08008KT 00/M01 A3023 RMK A01 T00041007  RH  092%=      5-min Rain = 0
KCO1 141024Z 08008KT 00/M01 A3023 RMK A01 T00041007  RH  092%=      5-min Rain = 0
KCO1 141025Z 08009KT 00/M01 A3023 RMK A01 T00041007  RH  092%=      5-min Rain = 0
KCO1 141026Z 07008KT 00/M01 A3023 RMK A01 T00041007  RH  092%=      5-min Rain = 0
KCO1 141027Z 08008KT 00/M01 A3023 RMK A01 T00041007  RH  092%=      5-min Rain = 0
KCO1 141028Z 08010KT 00/M01 A3023 RMK A01 T00031008  RH  092%=      5-min Rain = 0
KCO1 141029Z 08009KT 00/M01 A3023 RMK A01 T00031007  RH  092%=      5-min Rain = 0
KCO1 141030Z 08009KT 00/M01 A3023 RMK A01 T00041007  RH  092%=      5-min Rain = 0
KCO1 141031Z 08008KT 00/M01 A3023 RMK A01 T00031007  RH  092%=      5-min Rain = 0
KCO1 141032Z 08009KT 00/M01 A3023 RMK A01 T00031008  RH  092%=      5-min Rain = 0
KCO1 141033Z 08009KT 00/M01 A3024 RMK A01 T00031008  RH  093%=      5-min Rain = 0
KCO1 141034Z 08010KT 00/M01 A3024 RMK A01 T00031008  RH  093%=      5-min Rain = 0
KCO1 141035Z 08010KT 00/M01 A3024 RMK A01 T00021008  RH  093%=      5-min Rain = 0
KCO1 141036Z 08009KT 00/M01 A3024 RMK A01 T00021008  RH  093%=      5-min Rain = 0
KCO1 141037Z 07009KT 00/M01 A3024 RMK A01 T00021008  RH  093%=      5-min Rain = 0
KCO1 141038Z 07009KT 00/M01 A3024 RMK A01 T00021008  RH  093%=      5-min Rain = 0
KCO1 141039Z 08010KT 00/M01 A3024 RMK A01 T00021008  RH  093%=      5-min Rain = 0
KCO1 141040Z 08008KT 00/M01 A3024 RMK A01 T00021008  RH  093%=      5-min Rain = 0
KCO1 141041Z 08009KT 00/M01 A3024 RMK A01 T00021009  RH  093%=      5-min Rain = 0
KCO1 141042Z 08009KT 00/M01 A3024 RMK A01 T00021008  RH  093%=      5-min Rain = 0
KCO1 141043Z 08008KT 00/M01 A3024 RMK A01 T00021008  RH  093%=      5-min Rain = 0
KCO1 141044Z 08010KT 00/M01 A3024 RMK A01 T00021008  RH  093%=      5-min Rain = 0
KCO1 141045Z 08010KT 00/M01 A3024 RMK A01 T00021008  RH  093%=      5-min Rain = 0
KCO1 141046Z 08010KT 00/M01 A3024 RMK A01 T00021008  RH  093%=      5-min Rain = 0
KCO1 141047Z 08008KT 00/M01 A3024 RMK A01 T00021008  RH  093%=      5-min Rain = 0
KCO1 141048Z 08011KT 00/M01 A3024 RMK A01 T00021008  RH  093%=      5-min Rain = 0
KCO1 141049Z 08009KT 00/M01 A3024 RMK A01 T00021008  RH  093%=      5-min Rain = 0
KCO1 141050Z 08009KT 00/M01 A3024 RMK A01 T00021008  RH  093%=      5-min Rain = 0
KCO1 141051Z 08009KT 00/M01 A3024 RMK A01 T00021008  RH  093%=      5-min Rain = 0
KCO1 141052Z 08010KT 00/M01 A3024 RMK A01 T00021008  RH  093%=      5-min Rain = 0
KCO1 141053Z 08009KT 00/M01 A3024 RMK A01 T00021008  RH  093%=      5-min Rain = 0
KCO1 141054Z 08009KT 00/M01 A3024 RMK A01 T00021008  RH  093%=      5-min Rain = 0
KCO1 141055Z 08010KT 00/M01 A3024 RMK A01 T00021008  RH  093%=      5-min Rain = 0
KCO1 141056Z 08008KT 00/M01 A3024 RMK A01 T00021008  RH  093%=      5-min Rain = 0
KCO1 141057Z 08010KT 00/M01 A3024 RMK A01 T00021008  RH  093%=      5-min Rain = 0
KCO1 141058Z 08009KT 00/M01 A3024 RMK A01 T00021008  RH  093%=      5-min Rain = 0
KCO1 141059Z 08008KT 00/M01 A3024 RMK A01 T00011008  RH  093%=      5-min Rain = 0
KCO1 141100Z 08009KT 00/M01 A3024 RMK A01 T00011008  RH  093%=      5-min Rain = 0
KCO1 141101Z 08011KT 00/M01 A3024 RMK A01 T00011009  RH  093%=      5-min Rain = 0
KCO1 141102Z 08009KT 00/M01 A3024 RMK A01 T00011008  RH  093%=      5-min Rain = 0
KCO1 141103Z 08010KT 00/M01 A3024 RMK A01 T00011008  RH  093%=      5-min Rain = 0
KCO1 141104Z 08010KT 00/M01 A3024 RMK A01 T00011008  RH  093%=      5-min Rain = 0
KCO1 141105Z 09010KT 00/M01 A3024 RMK A01 T00011008  RH  093%=      5-min Rain = 0
KCO1 141106Z 08008KT 00/M01 A3024 RMK A01 T00011008  RH  093%=      5-min Rain = 0
KCO1 141107Z 08008KT 00/M01 A3024 RMK A01 T00011008  RH  093%=      5-min Rain = 0
KCO1 141108Z 08009KT 00/M01 A3024 RMK A01 T00011008  RH  093%=      5-min Rain = 0
KCO1 141109Z 08010KT 00/M01 A3024 RMK A01 T00011008  RH  093%=      5-min Rain = 0
KCO1 141110Z 08008KT 00/M01 A3024 RMK A01 T00011009  RH  093%=      5-min Rain = 0
KCO1 141111Z 08008KT 00/M01 A3024 RMK A01 T00011009  RH  093%=      5-min Rain = 0
KCO1 141112Z 08008KT 00/M01 A3024 RMK A01 T00011009  RH  093%=      5-min Rain = 0
KCO1 141113Z 08008KT 00/M01 A3024 RMK A01 T00011009  RH  093%=      5-min Rain = 0
KCO1 141114Z 08008KT 00/01 A3024 RMK A01 T000000-9  RH  093%=      5-min Rain = 0
KCO1 141115Z 08009KT 00/01 A3024 RMK A01 T000000-9  RH  094%=      5-min Rain = 0
KCO1 141116Z 08008KT 00/01 A3024 RMK A01 T00-00-10  RH  093%=      5-min Rain = 0
KCO1 141117Z 08009KT 00/01 A3024 RMK A01 T00-00-10  RH  093%=      5-min Rain = 0
KCO1 141118Z 08009KT 00/01 A3024 RMK A01 T00-00-10  RH  094%=      5-min Rain = 0
KCO1 141119Z 08007KT M00/M01 A3024 RMK A01 T10011010  RH  094%=      5-min Rain = 0
KCO1 141120Z 08008KT M00/M01 A3025 RMK A01 T10011010  RH  094%=      5-min Rain = 0
KCO1 141121Z 08008KT M00/M01 A3025 RMK A01 T10011010  RH  094%=      5-min Rain = 0
KCO1 141122Z 08009KT M00/M01 A3025 RMK A01 T10011010  RH  094%=      5-min Rain = 0
KCO1 141123Z 07008KT M00/M01 A3025 RMK A01 T10011010  RH  094%=      5-min Rain = 0
KCO1 141124Z 07009KT M00/M01 A3025 RMK A01 T10021011  RH  094%=      5-min Rain = 0
KCO1 141125Z 07010KT M00/M01 A3025 RMK A01 T10021011  RH  094%=      5-min Rain = 0
KCO1 141126Z 08008KT M00/M01 A3025 RMK A01 T10011010  RH  094%=      5-min Rain = 0
KCO1 141127Z 07009KT M00/M01 A3025 RMK A01 T10021010  RH  094%=      5-min Rain = 0
KCO1 141128Z 08008KT M00/M01 A3025 RMK A01 T10021010  RH  094%=      5-min Rain = 0
KCO1 141129Z 08009KT M00/M01 A3025 RMK A01 T10021011  RH  094%=      5-min Rain = 0
KCO1 141130Z 08009KT M00/M01 A3025 RMK A01 T10021010  RH  094%=      5-min Rain = 0
KCO1 141131Z 08009KT M00/M01 A3025 RMK A01 T10021010  RH  094%=      5-min Rain = 0
KCO1 141132Z 08008KT M00/M01 A3025 RMK A01 T10021011  RH  094%=      5-min Rain = 0
KCO1 141133Z 08008KT M00/M01 A3025 RMK A01 T10021011  RH  094%=      5-min Rain = 0
KCO1 141134Z 08009KT M00/M01 A3025 RMK A01 T10021010  RH  094%=      5-min Rain = 0
KCO1 141135Z 08009KT M00/M01 A3025 RMK A01 T10021010  RH  094%=      5-min Rain = 0
KCO1 141136Z 08010KT M00/M01 A3025 RMK A01 T10021010  RH  094%=      5-min Rain = 0
KCO1 141137Z 08010KT M00/M01 A3025 RMK A01 T10021010  RH  094%=      5-min Rain = 0
KCO1 141138Z 08009KT M00/M01 A3025 RMK A01 T10021010  RH  094%=      5-min Rain = 0
KCO1 141139Z 08009KT M00/M01 A3025 RMK A01 T10021010  RH  094%=      5-min Rain = 0
KCO1 141140Z 08009KT M00/M01 A3025 RMK A01 T10031011  RH  094%=      5-min Rain = 0
KCO1 141141Z 08010KT M00/M01 A3025 RMK A01 T10031011  RH  094%=      5-min Rain = 0
KCO1 141142Z 08010KT M00/M01 A3025 RMK A01 T10021010  RH  094%=      5-min Rain = 0
KCO1 141143Z 08012KT M00/M01 A3025 RMK A01 T10021010  RH  094%=      5-min Rain = 0
KCO1 141144Z 08010KT M00/M01 A3025 RMK A01 T10021010  RH  094%=      5-min Rain = 0
KCO1 141145Z 08010KT M00/M01 A3025 RMK A01 T10021010  RH  094%=      5-min Rain = 0
KCO1 141146Z 08010KT M00/M01 A3025 RMK A01 T10021010  RH  094%=      5-min Rain = 0
KCO1 141147Z 08012KT M00/M01 A3025 RMK A01 T10021010  RH  094%=      5-min Rain = 0
KCO1 141148Z 08010KT M00/M01 A3025 RMK A01 T10021010  RH  094%=      5-min Rain = 0
KCO1 141149Z 08010KT M00/M01 A3025 RMK A01 T10021010  RH  094%=      5-min Rain = 0
KCO1 141150Z 08011KT M00/M01 A3025 RMK A01 T10021010  RH  094%=      5-min Rain = 0
KCO1 141151Z 08012KT M00/M01 A3025 RMK A01 T10021010  RH  094%=      5-min Rain = 0
KCO1 141152Z 08010KT M00/M01 A3025 RMK A01 T10021010  RH  094%=      5-min Rain = 0
KCO1 141153Z 08010KT M00/M01 A3025 RMK A01 T10021010  RH  094%=      5-min Rain = 0
KCO1 141154Z 08011KT M00/M01 A3025 RMK A01 T10021010  RH  094%=      5-min Rain = 0
KCO1 141155Z 08009KT M00/M01 A3025 RMK A01 T10021010  RH  094%=      5-min Rain = 0
KCO1 141156Z 08011KT M00/M01 A3025 RMK A01 T10021010  RH  094%=      5-min Rain = 0
KCO1 141157Z 08011KT M00/M01 A3025 RMK A01 T10021010  RH  094%=      5-min Rain = 0
KCO1 141158Z 09010KT M00/M01 A3025 RMK A01 T10021010  RH  094%=      5-min Rain = 0
KCO1 141159Z 09011KT M00/M01 A3025 RMK A01 T10021010  RH  094%=      5-min Rain = 0
KCO1 141200Z 09010KT M00/M01 A3025 RMK A01 T10021010  RH  094%=      5-min Rain = 0
KCO1 141201Z 08011KT M00/M01 A3025 RMK A01 T10021010  RH  094%=      5-min Rain = 0
KCO1 141202Z 08012KT M00/M01 A3025 RMK A01 T10031011  RH  094%=      5-min Rain = 0
KCO1 141203Z 08013KT M00/M01 A3025 RMK A01 T10021010  RH  094%=      5-min Rain = 0
KCO1 141204Z 09011KT M00/M01 A3025 RMK A01 T10021010  RH  094%=      5-min Rain = 0
KCO1 141205Z 08009KT M00/M01 A3025 RMK A01 T10021010  RH  094%=      5-min Rain = 0
KCO1 141206Z 08009KT M00/M01 A3025 RMK A01 T10021010  RH  094%=      5-min Rain = 0
KCO1 141207Z 08010KT M00/M01 A3025 RMK A01 T10021011  RH  094%=      5-min Rain = 0
KCO1 141208Z 08009KT M00/M01 A3025 RMK A01 T10031011  RH  094%=      5-min Rain = 0
KCO1 141209Z 08009KT M00/M01 A3025 RMK A01 T10031011  RH  094%=      5-min Rain = 0
KCO1 141210Z 07009KT M00/M01 A3025 RMK A01 T10031011  RH  094%=      5-min Rain = 0
KCO1 141211Z 08009KT M00/M01 A3025 RMK A01 T10041012  RH  094%=      5-min Rain = 0
KCO1 141212Z 08009KT M00/M01 A3025 RMK A01 T10041012  RH  094%=      5-min Rain = 0
KCO1 141213Z 08009KT M00/M01 A3025 RMK A01 T10041012  RH  094%=      5-min Rain = 0
KCO1 141214Z 08011KT M00/M01 A3025 RMK A01 T10041012  RH  094%=      5-min Rain = 0
KCO1 141215Z 08010KT M00/M01 A3025 RMK A01 T10041011  RH  094%=      5-min Rain = 0
KCO1 141216Z 08010KT M00/M01 A3025 RMK A01 T10031011  RH  095%=      5-min Rain = 0
KCO1 141217Z 08009KT M00/M01 A3025 RMK A01 T10031011  RH  094%=      5-min Rain = 0
KCO1 141218Z 08009KT M00/M01 A3025 RMK A01 T10031011  RH  094%=      5-min Rain = 0
KCO1 141219Z 08009KT M00/M01 A3025 RMK A01 T10031011  RH  095%=      5-min Rain = 0
KCO1 141220Z 07009KT M00/M01 A3025 RMK A01 T10031011  RH  095%=      5-min Rain = 0
KCO1 141221Z 07010KT M00/M01 A3025 RMK A01 T10031011  RH  095%=      5-min Rain = 0
KCO1 141222Z 08009KT M00/M01 A3025 RMK A01 T10031011  RH  095%=      5-min Rain = 0
KCO1 141223Z 08008KT M00/M01 A3026 RMK A01 T10031011  RH  095%=      5-min Rain = 0
KCO1 141224Z 08009KT M00/M01 A3026 RMK A01 T10031011  RH  095%=      5-min Rain = 0
KCO1 141225Z 08008KT M00/M01 A3026 RMK A01 T10041011  RH  095%=      5-min Rain = 0
KCO1 141226Z 08009KT M00/M01 A3026 RMK A01 T10041011  RH  095%=      5-min Rain = 0
KCO1 141227Z 08009KT M00/M01 A3025 RMK A01 T10041011  RH  095%=      5-min Rain = 0
KCO1 141228Z 08009KT M00/M01 A3025 RMK A01 T10041011  RH  095%=      5-min Rain = 0
KCO1 141229Z 08010KT M00/M01 A3025 RMK A01 T10041011  RH  095%=      5-min Rain = 0
KCO1 141230Z 08008KT M00/M01 A3025 RMK A01 T10041011  RH  095%=      5-min Rain = 0
KCO1 141231Z 08009KT M00/M01 A3025 RMK A01 T10041011  RH  095%=      5-min Rain = 0
KCO1 141232Z 08008KT M00/M01 A3025 RMK A01 T10041011  RH  095%=      5-min Rain = 0
KCO1 141233Z 07009KT M00/M01 A3025 RMK A01 T10041011  RH  095%=      5-min Rain = 0
KCO1 141234Z 07011KT M00/M01 A3025 RMK A01 T10041011  RH  095%=      5-min Rain = 0
KCO1 141235Z 07009KT M00/M01 A3025 RMK A01 T10041011  RH  095%=      5-min Rain = 0
KCO1 141236Z 07008KT M00/M01 A3025 RMK A01 T10041011  RH  095%=      5-min Rain = 0
KCO1 141237Z 07009KT M00/M01 A3025 RMK A01 T10041012  RH  095%=      5-min Rain = 0
KCO1 141238Z 08008KT M00/M01 A3025 RMK A01 T10041012  RH  095%=      5-min Rain = 0
KCO1 141239Z 08009KT M00/M01 A3026 RMK A01 T10041012  RH  095%=      5-min Rain = 0
KCO1 141240Z 07009KT M00/M01 A3026 RMK A01 T10041012  RH  095%=      5-min Rain = 0
KCO1 141241Z 08009KT M00/M01 A3026 RMK A01 T10041012  RH  095%=      5-min Rain = 0
KCO1 141242Z 08010KT M00/M01 A3026 RMK A01 T10041012  RH  095%=      5-min Rain = 0
KCO1 141243Z 08010KT M00/M01 A3026 RMK A01 T10041012  RH  095%=      5-min Rain = 0
KCO1 141244Z 07010KT M00/M01 A3026 RMK A01 T10041011  RH  095%=      5-min Rain = 0
KCO1 141245Z 08008KT M00/M01 A3026 RMK A01 T10041012  RH  095%=      5-min Rain = 0
KCO1 141246Z 08010KT M00/M01 A3026 RMK A01 T10041012  RH  095%=      5-min Rain = 0
KCO1 141247Z 08009KT M00/M01 A3026 RMK A01 T10041011  RH  095%=      5-min Rain = 0
KCO1 141248Z 08009KT M00/M01 A3026 RMK A01 T10041011  RH  095%=      5-min Rain = 0
KCO1 141249Z 08010KT M00/M01 A3026 RMK A01 T10041011  RH  095%=      5-min Rain = 0
KCO1 141250Z 08009KT M00/M01 A3026 RMK A01 T10041011  RH  095%=      5-min Rain = 0
KCO1 141251Z 08009KT M00/M01 A3026 RMK A01 T10041011  RH  095%=      5-min Rain = 0
KCO1 141252Z 08009KT M00/M01 A3026 RMK A01 T10041011  RH  095%=      5-min Rain = 0
KCO1 141253Z 07008KT M00/M01 A3026 RMK A01 T10041011  RH  095%=      5-min Rain = 0
KCO1 141254Z 07009KT M00/M01 A3026 RMK A01 T10041012  RH  095%=      5-min Rain = 0
KCO1 141255Z 07009KT M00/M01 A3026 RMK A01 T10041012  RH  095%=      5-min Rain = 0
KCO1 141256Z 08010KT M00/M01 A3026 RMK A01 T10041011  RH  095%=      5-min Rain = 0
KCO1 141257Z 08009KT M00/M01 A3026 RMK A01 T10041011  RH  095%=      5-min Rain = 0
KCO1 141258Z 08010KT M00/M01 A3026 RMK A01 T10041011  RH  095%=      5-min Rain = 0
KCO1 141259Z 08009KT M00/M01 A3026 RMK A01 T10041011  RH  095%=      5-min Rain = 0
KCO1 141300Z 07009KT M00/M01 A3026 RMK A01 T10041011  RH  095%=      5-min Rain = 0
KCO1 141301Z 07009KT M00/M01 A3026 RMK A01 T10041011  RH  095%=      5-min Rain = 0
KCO1 141302Z 08009KT M00/M01 A3026 RMK A01 T10041011  RH  095%=      5-min Rain = 0
KCO1 141303Z 07009KT M00/M01 A3026 RMK A01 T10041011  RH  095%=      5-min Rain = 0
KCO1 141304Z 07008KT M00/M01 A3027 RMK A01 T10041011  RH  095%=      5-min Rain = 0
KCO1 141305Z 08009KT M00/M01 A3027 RMK A01 T10041011  RH  095%=      5-min Rain = 0
KCO1 141306Z 07009KT M00/M01 A3027 RMK A01 T10041011  RH  095%=      5-min Rain = 0
KCO1 141307Z 08009KT M00/M01 A3027 RMK A01 T10041011  RH  095%=      5-min Rain = 0
KCO1 141308Z 08009KT M00/M01 A3027 RMK A01 T10041011  RH  095%=      5-min Rain = 0
KCO1 141309Z 08008KT M00/M01 A3026 RMK A01 T10041011  RH  095%=      5-min Rain = 0
KCO1 141310Z 08009KT M01/M01 A3026 RMK A01 T10051012  RH  095%=      5-min Rain = 0
KCO1 141311Z 08009KT M01/M01 A3027 RMK A01 T10051012  RH  095%=      5-min Rain = 0
KCO1 141312Z 08008KT M01/M01 A3026 RMK A01 T10051012  RH  095%=      5-min Rain = 0
KCO1 141313Z 08007KT M00/M01 A3027 RMK A01 T10041011  RH  095%=      5-min Rain = 0
KCO1 141314Z 08009KT M01/M01 A3027 RMK A01 T10051012  RH  095%=      5-min Rain = 0
KCO1 141315Z 08009KT M01/M01 A3027 RMK A01 T10051012  RH  095%=      5-min Rain = 0
KCO1 141316Z 08008KT M01/M01 A3027 RMK A01 T10051012  RH  095%=      5-min Rain = 0
KCO1 141317Z 08009KT M01/M01 A3027 RMK A01 T10051012  RH  095%=      5-min Rain = 0
KCO1 141318Z 07009KT M01/M01 A3027 RMK A01 T10051012  RH  095%=      5-min Rain = 0
KCO1 141319Z 08008KT M01/M01 A3027 RMK A01 T10051012  RH  095%=      5-min Rain = 0
KCO1 141320Z 08008KT M01/M01 A3027 RMK A01 T10051012  RH  095%=      5-min Rain = 0
KCO1 141321Z 08009KT M01/M01 A3027 RMK A01 T10051012  RH  095%=      5-min Rain = 0
KCO1 141322Z 07008KT M01/M01 A3027 RMK A01 T10051012  RH  095%=      5-min Rain = 0
KCO1 141323Z 08008KT M01/M01 A3027 RMK A01 T10051012  RH  095%=      5-min Rain = 0
KCO1 141324Z 08007KT M01/M01 A3027 RMK A01 T10051012  RH  095%=      5-min Rain = 0
KCO1 141325Z 08007KT M01/M01 A3027 RMK A01 T10051012  RH  095%=      5-min Rain = 0
KCO1 141326Z 08007KT M01/M01 A3027 RMK A01 T10051012  RH  095%=      5-min Rain = 0
KCO1 141327Z 07008KT M01/M01 A3027 RMK A01 T10061013  RH  095%=      5-min Rain = 0
KCO1 141328Z 08008KT M01/M01 A3027 RMK A01 T10061012  RH  095%=      5-min Rain = 0
KCO1 141329Z 08007KT M01/M01 A3028 RMK A01 T10051012  RH  095%=      5-min Rain = 0
KCO1 141330Z 08007KT M01/M01 A3028 RMK A01 T10061012  RH  095%=      5-min Rain = 0
KCO1 141331Z 08008KT M01/M01 A3028 RMK A01 T10051012  RH  095%=      5-min Rain = 0
KCO1 141332Z 08007KT M01/M01 A3028 RMK A01 T10051012  RH  095%=      5-min Rain = 0
KCO1 141333Z 07008KT M01/M01 A3028 RMK A01 T10051011  RH  095%=      5-min Rain = 0
KCO1 141334Z 08008KT M01/M01 A3028 RMK A01 T10051011  RH  095%=      5-min Rain = 0
KCO1 141335Z 08008KT M01/M01 A3028 RMK A01 T10051012  RH  095%=      5-min Rain = 0
KCO1 141336Z 09007KT M01/M01 A3028 RMK A01 T10051012  RH  095%=      5-min Rain = 0
KCO1 141337Z 08007KT M01/M01 A3028 RMK A01 T10051012  RH  095%=      5-min Rain = 0
KCO1 141338Z 08007KT M01/M01 A3028 RMK A01 T10051012  RH  095%=      5-min Rain = 0
KCO1 141339Z 08008KT M01/M01 A3028 RMK A01 T10051012  RH  095%=      5-min Rain = 0
KCO1 141340Z 08008KT M01/M01 A3028 RMK A01 T10051012  RH  095%=      5-min Rain = 0
KCO1 141341Z 09007KT M01/M01 A3028 RMK A01 T10051012  RH  095%=      5-min Rain = 0
KCO1 141342Z 09006KT M01/M01 A3028 RMK A01 T10051012  RH  095%=      5-min Rain = 0
KCO1 141343Z 09006KT M01/M01 A3028 RMK A01 T10051012  RH  095%=      5-min Rain = 0
KCO1 141344Z 08009KT M01/M01 A3028 RMK A01 T10051012  RH  095%=      5-min Rain = 0
KCO1 141345Z 09007KT M01/M01 A3028 RMK A01 T10051012  RH  095%=      5-min Rain = 0
KCO1 141346Z 09007KT M01/M01 A3028 RMK A01 T10051012  RH  095%=      5-min Rain = 0
KCO1 141347Z 09008KT M01/M01 A3028 RMK A01 T10051012  RH  095%=      5-min Rain = 0
KCO1 141348Z 09009KT M01/M01 A3028 RMK A01 T10051011  RH  095%=      5-min Rain = 0
KCO1 141349Z 09008KT M01/M01 A3028 RMK A01 T10051011  RH  095%=      5-min Rain = 0
KCO1 141350Z 09008KT M00/M01 A3028 RMK A01 T10041011  RH  095%=      5-min Rain = 0
KCO1 141351Z 09008KT M00/M01 A3028 RMK A01 T10041011  RH  095%=      5-min Rain = 0
KCO1 141352Z 09008KT M00/M01 A3028 RMK A01 T10041011  RH  095%=      5-min Rain = 0
KCO1 141353Z 09007KT M00/M01 A3028 RMK A01 T10041011  RH  095%=      5-min Rain = 0
KCO1 141354Z 09009KT M00/M01 A3028 RMK A01 T10041011  RH  095%=      5-min Rain = 0
KCO1 141355Z 09007KT M00/M01 A3028 RMK A01 T10041011  RH  095%=      5-min Rain = 0
KCO1 141356Z 09009KT M00/M01 A3028 RMK A01 T10041011  RH  095%=      5-min Rain = 0
KCO1 141357Z 09008KT M00/M01 A3028 RMK A01 T10031010  RH  095%=      5-min Rain = 0
KCO1 141358Z 09008KT M00/M01 A3028 RMK A01 T10031010  RH  095%=      5-min Rain = 0
KCO1 141359Z 09008KT M00/M01 A3028 RMK A01 T10041011  RH  095%=      5-min Rain = 0
KCO1 141400Z 08007KT M00/M01 A3028 RMK A01 T10031010  RH  095%=      5-min Rain = 0
KCO1 141401Z 08008KT M00/M01 A3028 RMK A01 T10031010  RH  095%=      5-min Rain = 0
KCO1 141402Z 09009KT M00/M01 A3028 RMK A01 T10031010  RH  095%=      5-min Rain = 0
KCO1 141403Z 09007KT M00/M01 A3028 RMK A01 T10031010  RH  095%=      5-min Rain = 0
KCO1 141404Z 09007KT M00/M01 A3028 RMK A01 T10021009  RH  095%=      5-min Rain = 0
KCO1 141405Z 09008KT M00/M01 A3028 RMK A01 T10021010  RH  095%=      5-min Rain = 0
KCO1 141406Z 09009KT M00/M01 A3028 RMK A01 T10021010  RH  095%=      5-min Rain = 0
KCO1 141407Z 09009KT M00/M01 A3028 RMK A01 T10021010  RH  095%=      5-min Rain = 0
KCO1 141408Z 09009KT M00/M01 A3028 RMK A01 T10031010  RH  095%=      5-min Rain = 0
KCO1 141409Z 09007KT M00/M01 A3028 RMK A01 T10021009  RH  095%=      5-min Rain = 0
KCO1 141410Z 09008KT M00/M01 A3028 RMK A01 T10021009  RH  095%=      5-min Rain = 0
KCO1 141411Z 09007KT M00/M01 A3028 RMK A01 T10021009  RH  095%=      5-min Rain = 0
KCO1 141412Z 09007KT M00/M01 A3028 RMK A01 T10011009  RH  095%=      5-min Rain = 0
KCO1 141413Z 09007KT M00/M01 A3028 RMK A01 T10011009  RH  095%=      5-min Rain = 0
KCO1 141414Z 08007KT 00/01 A3028 RMK A01 T00-000-8  RH  095%=      5-min Rain = 0
KCO1 141415Z 10005KT 00/01 A3028 RMK A01 T00-000-8  RH  095%=      5-min Rain = 0
KCO1 141416Z 09008KT 00/01 A3028 RMK A01 T00-000-8  RH  095%=      5-min Rain = 0
KCO1 141417Z 09009KT 00/01 A3028 RMK A01 T00-000-8  RH  095%=      5-min Rain = 0
KCO1 141418Z 09008KT 00/01 A3028 RMK A01 T00-000-8  RH  095%=      5-min Rain = 0
KCO1 141419Z 09008KT 00/01 A3028 RMK A01 T000000-8  RH  094%=      5-min Rain = 0
KCO1 141420Z 09007KT 00/M01 A3028 RMK A01 T00011007  RH  094%=      5-min Rain = 0
KCO1 141421Z 09008KT 00/M01 A3028 RMK A01 T00011007  RH  094%=      5-min Rain = 0
KCO1 141422Z 09008KT 00/M01 A3028 RMK A01 T00011007  RH  094%=      5-min Rain = 0
KCO1 141423Z 09007KT 00/M01 A3028 RMK A01 T00011007  RH  094%=      5-min Rain = 0
KCO1 141424Z 09008KT 00/M01 A3028 RMK A01 T00021006  RH  094%=      5-min Rain = 0
KCO1 141425Z 09009KT 00/M01 A3028 RMK A01 T00021006  RH  094%=      5-min Rain = 0
KCO1 141426Z 09007KT 00/M01 A3028 RMK A01 T00021006  RH  094%=      5-min Rain = 0
KCO1 141427Z 09008KT 00/M01 A3028 RMK A01 T00021006  RH  094%=      5-min Rain = 0
KCO1 141428Z 09009KT 00/M01 A3028 RMK A01 T00031006  RH  094%=      5-min Rain = 0
KCO1 141429Z 09009KT 00/M01 A3029 RMK A01 T00031006  RH  094%=      5-min Rain = 0
KCO1 141430Z 10007KT 00/M01 A3028 RMK A01 T00031006  RH  094%=      5-min Rain = 0
KCO1 141431Z 10007KT 00/M00 A3028 RMK A01 T00041004  RH  094%=      5-min Rain = 0
KCO1 141432Z 09008KT 01/M00 A3028 RMK A01 T00051004  RH  094%=      5-min Rain = 0
KCO1 141433Z 10006KT 01/M00 A3028 RMK A01 T00051004  RH  094%=      5-min Rain = 0
KCO1 141434Z 09006KT 01/M00 A3028 RMK A01 T00061002  RH  094%=      5-min Rain = 0
KCO1 141435Z 09008KT 01/M00 A3029 RMK A01 T00061002  RH  094%=      5-min Rain = 0
KCO1 141436Z 09010KT 01/M00 A3029 RMK A01 T00061003  RH  094%=      5-min Rain = 0
KCO1 141437Z 09009KT 01/M00 A3029 RMK A01 T00061003  RH  093%=      5-min Rain = 0
KCO1 141438Z 09008KT 01/M00 A3029 RMK A01 T00061003  RH  093%=      5-min Rain = 0
KCO1 141439Z 09011KT 01/M00 A3029 RMK A01 T00071003  RH  093%=      5-min Rain = 0
KCO1 141440Z 09009KT 01/M00 A3029 RMK A01 T00061004  RH  093%=      5-min Rain = 0
KCO1 141441Z 09007KT 01/M00 A3029 RMK A01 T00071004  RH  093%=      5-min Rain = 0
KCO1 141442Z 09009KT 01/M00 A3029 RMK A01 T00081002  RH  093%=      5-min Rain = 0
KCO1 141443Z 09010KT 01/M00 A3029 RMK A01 T00081002  RH  093%=      5-min Rain = 0
KCO1 141444Z 09009KT 01/M00 A3029 RMK A01 T00091002  RH  093%=      5-min Rain = 0
KCO1 141445Z 09007KT 01/M00 A3029 RMK A01 T00091001  RH  093%=      5-min Rain = 0
KCO1 141446Z 09008KT 01/M00 A3029 RMK A01 T00101001  RH  093%=      5-min Rain = 0
KCO1 141447Z 09008KT 01/00 A3029 RMK A01 T001100-0  RH  092%=      5-min Rain = 0
KCO1 141448Z 10009KT 01/00 A3029 RMK A01 T001100-0  RH  092%=      5-min Rain = 0
KCO1 141449Z 09008KT 01/M00 A3029 RMK A01 T00111001  RH  092%=      5-min Rain = 0
KCO1 141450Z 09009KT 01/00 A3029 RMK A01 T001200-0  RH  092%=      5-min Rain = 0
KCO1 141451Z 09009KT 01/00 A3029 RMK A01 T001200-0  RH  092%=      5-min Rain = 0
KCO1 141452Z 10008KT 01/00 A3029 RMK A01 T00130001  RH  092%=      5-min Rain = 0
KCO1 141453Z 10008KT 01/00 A3029 RMK A01 T00140002  RH  092%=      5-min Rain = 0
KCO1 141454Z 09007KT 01/00 A3029 RMK A01 T00140002  RH  091%=      5-min Rain = 0
KCO1 141455Z 09007KT 02/00 A3029 RMK A01 T00160004  RH  091%=      5-min Rain = 0
KCO1 141456Z 09007KT 02/00 A3029 RMK A01 T00170004  RH  091%=      5-min Rain = 0
KCO1 141457Z 09008KT 02/00 A3029 RMK A01 T00170004  RH  091%=      5-min Rain = 0
KCO1 141458Z 08008KT 02/00 A3029 RMK A01 T00180004  RH  090%=      5-min Rain = 0
KCO1 141459Z 08009KT 02/00 A3029 RMK A01 T00190004  RH  090%=      5-min Rain = 0
KCO1 141500Z 10007KT 02/00 A3029 RMK A01 T00190003  RH  090%=      5-min Rain = 0
KCO1 141501Z 09006KT 02/01 A3029 RMK A01 T00200005  RH  090%=      5-min Rain = 0
KCO1 141502Z 09007KT 02/01 A3029 RMK A01 T00220006  RH  090%=      5-min Rain = 0
KCO1 141503Z 10006KT 02/01 A3029 RMK A01 T00220006  RH  089%=      5-min Rain = 0
KCO1 141504Z 09007KT 02/01 A3029 RMK A01 T00240007  RH  089%=      5-min Rain = 0
KCO1 141505Z 10008KT 03/01 A3029 RMK A01 T00250008  RH  089%=      5-min Rain = 0
KCO1 141506Z 08007KT 03/01 A3029 RMK A01 T00250007  RH  088%=      5-min Rain = 0
KCO1 141507Z 09007KT 03/01 A3029 RMK A01 T00260007  RH  087%=      5-min Rain = 0
KCO1 141508Z 10007KT 03/01 A3029 RMK A01 T00260006  RH  087%=      5-min Rain = 0
KCO1 141509Z 10007KT 03/01 A3029 RMK A01 T00260006  RH  087%=      5-min Rain = 0
KCO1 141510Z 10008KT 03/01 A3029 RMK A01 T00270007  RH  087%=      5-min Rain = 0
KCO1 141511Z 10009KT 03/01 A3029 RMK A01 T00270006  RH  086%=      5-min Rain = 0
KCO1 141512Z 10009KT 03/01 A3029 RMK A01 T00270005  RH  086%=      5-min Rain = 0
KCO1 141513Z 10010KT 03/01 A3029 RMK A01 T00270005  RH  085%=      5-min Rain = 0
KCO1 141514Z 10009KT 03/01 A3029 RMK A01 T00270005  RH  085%=      5-min Rain = 0
KCO1 141515Z 10009KT 03/01 A3029 RMK A01 T00270005  RH  085%=      5-min Rain = 0
KCO1 141516Z 10008KT 03/01 A3029 RMK A01 T00280005  RH  085%=      5-min Rain = 0
KCO1 141517Z 10009KT 03/01 A3029 RMK A01 T00280005  RH  085%=      5-min Rain = 0
KCO1 141518Z 10008KT 03/01 A3029 RMK A01 T00290005  RH  085%=      5-min Rain = 0
KCO1 141519Z 10010KT 03/01 A3029 RMK A01 T00300007  RH  085%=      5-min Rain = 0
KCO1 141520Z 10008KT 03/01 A3029 RMK A01 T00300007  RH  085%=      5-min Rain = 0
KCO1 141521Z 10009KT 03/01 A3029 RMK A01 T00310008  RH  084%=      5-min Rain = 0
KCO1 141522Z 09008KT 03/01 A3029 RMK A01 T00320007  RH  084%=      5-min Rain = 0
KCO1 141523Z 09007KT 03/01 A3029 RMK A01 T00330009  RH  084%=      5-min Rain = 0
KCO1 141524Z 10009KT 03/01 A3029 RMK A01 T00340010  RH  084%=      5-min Rain = 0
KCO1 141525Z 10008KT 04/01 A3029 RMK A01 T00350009  RH  083%=      5-min Rain = 0
KCO1 141526Z 10008KT 04/01 A3029 RMK A01 T00350008  RH  083%=      5-min Rain = 0
KCO1 141527Z 10009KT 04/01 A3029 RMK A01 T00350009  RH  083%=      5-min Rain = 0
KCO1 141528Z 10009KT 04/01 A3029 RMK A01 T00360009  RH  083%=      5-min Rain = 0
KCO1 141529Z 10006KT 04/01 A3029 RMK A01 T00360009  RH  082%=      5-min Rain = 0
KCO1 141530Z 10006KT 04/01 A3029 RMK A01 T00380010  RH  082%=      5-min Rain = 0
KCO1 141531Z 12008KT 04/01 A3029 RMK A01 T00400013  RH  082%=      5-min Rain = 0
KCO1 141532Z 11008KT 04/01 A3029 RMK A01 T00410012  RH  082%=      5-min Rain = 0
KCO1 141533Z 11007KT 04/01 A3029 RMK A01 T00410011  RH  081%=      5-min Rain = 0
KCO1 141534Z 10008KT 04/01 A3029 RMK A01 T00420012  RH  081%=      5-min Rain = 0
KCO1 141535Z 10008KT 04/01 A3029 RMK A01 T00420012  RH  080%=      5-min Rain = 0
KCO1 141536Z 10009KT 04/01 A3029 RMK A01 T00430011  RH  080%=      5-min Rain = 0
KCO1 141537Z 11010KT 04/01 A3029 RMK A01 T00440012  RH  080%=      5-min Rain = 0
KCO1 141538Z 10009KT 04/01 A3029 RMK A01 T00440011  RH  079%=      5-min Rain = 0
KCO1 141539Z 11007KT 04/01 A3029 RMK A01 T00440011  RH  079%=      5-min Rain = 0
KCO1 141540Z 11008KT 05/01 A3029 RMK A01 T00450013  RH  079%=      5-min Rain = 0
KCO1 141541Z 11007KT 05/01 A3029 RMK A01 T00470014  RH  079%=      5-min Rain = 0
KCO1 141542Z 11009KT 05/02 A3029 RMK A01 T00490015  RH  079%=      5-min Rain = 0
KCO1 141543Z 11008KT 05/01 A3029 RMK A01 T00490013  RH  078%=      5-min Rain = 0
KCO1 141544Z 11009KT 05/01 A3029 RMK A01 T00490013  RH  077%=      5-min Rain = 0
KCO1 141545Z 11009KT 05/01 A3029 RMK A01 T00490013  RH  077%=      5-min Rain = 0
KCO1 141546Z 12006KT 05/01 A3029 RMK A01 T00500014  RH  077%=      5-min Rain = 0
KCO1 141547Z 13009KT 05/02 A3029 RMK A01 T00520017  RH  078%=      5-min Rain = 0
KCO1 141548Z 13008KT 05/02 A3029 RMK A01 T00520015  RH  077%=      5-min Rain = 0
KCO1 141549Z 11009KT 05/02 A3029 RMK A01 T00530016  RH  077%=      5-min Rain = 0
KCO1 141550Z 12008KT 05/02 A3029 RMK A01 T00540016  RH  076%=      5-min Rain = 0
KCO1 141551Z 12008KT 06/02 A3029 RMK A01 T00550016  RH  076%=      5-min Rain = 0
KCO1 141552Z 12008KT 06/02 A3029 RMK A01 T00550016  RH  076%=      5-min Rain = 0
KCO1 141553Z 12010KT 06/02 A3029 RMK A01 T00560015  RH  075%=      5-min Rain = 0
KCO1 141554Z 13007KT 06/02 A3029 RMK A01 T00560015  RH  075%=      5-min Rain = 0
KCO1 141555Z 13009KT 06/02 A3029 RMK A01 T00550015  RH  075%=      5-min Rain = 0
KCO1 141556Z 12007KT 06/02 A3029 RMK A01 T00560015  RH  075%=      5-min Rain = 0
KCO1 141557Z 12006KT 06/02 A3029 RMK A01 T00570017  RH  075%=      5-min Rain = 0
KCO1 141558Z 12008KT 06/02 A3029 RMK A01 T00590019  RH  075%=      5-min Rain = 0
KCO1 141559Z 14008KT 06/02 A3029 RMK A01 T00600017  RH  074%=      5-min Rain = 0
KCO1 141600Z 14009KT 06/02 A3029 RMK A01 T00590016  RH  074%=      5-min Rain = 0
KCO1 141601Z 13007KT 06/01 A3029 RMK A01 T00580014  RH  073%=      5-min Rain = 0
KCO1 141602Z 13009KT 06/02 A3029 RMK A01 T00580015  RH  074%=      5-min Rain = 0
KCO1 141603Z 13007KT 06/02 A3029 RMK A01 T00580015  RH  074%=      5-min Rain = 0
KCO1 141604Z 12007KT 06/02 A3029 RMK A01 T00570016  RH  075%=      5-min Rain = 0
KCO1 141605Z 14007KT 06/02 A3029 RMK A01 T00600019  RH  075%=      5-min Rain = 0
KCO1 141606Z 14006KT 06/02 A3029 RMK A01 T00620018  RH  074%=      5-min Rain = 0
KCO1 141607Z 13007KT 06/02 A3029 RMK A01 T00620018  RH  073%=      5-min Rain = 0
KCO1 141608Z 12007KT 06/02 A3029 RMK A01 T00630018  RH  073%=      5-min Rain = 0
KCO1 141609Z 12006KT 06/02 A3029 RMK A01 T00630018  RH  073%=      5-min Rain = 0
KCO1 141610Z 15007KT 06/02 A3029 RMK A01 T00630018  RH  073%=      5-min Rain = 0
KCO1 141611Z 13006KT 06/02 A3028 RMK A01 T00640018  RH  073%=      5-min Rain = 0
KCO1 141612Z 14007KT 06/02 A3029 RMK A01 T00640018  RH  073%=      5-min Rain = 0
KCO1 141613Z 12005KT 06/02 A3029 RMK A01 T00640018  RH  072%=      5-min Rain = 0
KCO1 141614Z 12006KT 07/02 A3029 RMK A01 T00660021  RH  073%=      5-min Rain = 0
KCO1 141615Z 13006KT 07/02 A3029 RMK A01 T00680021  RH  072%=      5-min Rain = 0
KCO1 141616Z 12007KT 07/02 A3029 RMK A01 T00690021  RH  071%=      5-min Rain = 0
KCO1 141617Z 13005KT 07/02 A3029 RMK A01 T00700020  RH  070%=      5-min Rain = 0
KCO1 141618Z 14005KT 07/02 A3029 RMK A01 T00700021  RH  071%=      5-min Rain = 0
KCO1 141619Z 13006KT 07/02 A3029 RMK A01 T00710022  RH  071%=      5-min Rain = 0
KCO1 141620Z 13007KT 07/02 A3029 RMK A01 T00700019  RH  070%=      5-min Rain = 0
KCO1 141621Z 13008KT 07/02 A3029 RMK A01 T00680018  RH  070%=      5-min Rain = 0
KCO1 141622Z 19007KT 07/02 A3029 RMK A01 T00670018  RH  071%=      5-min Rain = 0
KCO1 141623Z 22010KT 07/02 A3029 RMK A01 T00650017  RH  072%=      5-min Rain = 0
KCO1 141624Z 22007KT 06/01 A3029 RMK A01 T00600014  RH  072%=      5-min Rain = 0
KCO1 141625Z 22007KT 06/01 A3029 RMK A01 T00570014  RH  074%=      5-min Rain = 0
KCO1 141626Z 21007KT 06/01 A3029 RMK A01 T00550014  RH  075%=      5-min Rain = 0
KCO1 141627Z 23008KT 05/01 A3029 RMK A01 T00530013  RH  075%=      5-min Rain = 0
KCO1 141628Z 22007KT 05/02 A3029 RMK A01 T00530015  RH  077%=      5-min Rain = 0
KCO1 141629Z 22008KT 05/02 A3029 RMK A01 T00530015  RH  076%=      5-min Rain = 0
KCO1 141630Z 21007KT 05/01 A3029 RMK A01 T00520013  RH  076%=      5-min Rain = 0
KCO1 141631Z 22007KT 05/01 A3029 RMK A01 T00500013  RH  077%=      5-min Rain = 0
KCO1 141632Z 22007KT 05/01 A3029 RMK A01 T00500014  RH  077%=      5-min Rain = 0
KCO1 141633Z 23008KT 05/01 A3029 RMK A01 T00500014  RH  077%=      5-min Rain = 0
KCO1 141634Z 23007KT 05/02 A3029 RMK A01 T00520016  RH  078%=      5-min Rain = 0
KCO1 141635Z 21007KT 05/02 A3029 RMK A01 T00530016  RH  077%=      5-min Rain = 0
KCO1 141636Z 23006KT 05/02 A3029 RMK A01 T00530015  RH  076%=      5-min Rain = 0
KCO1 141637Z 23006KT 05/02 A3029 RMK A01 T00540018  RH  077%=      5-min Rain = 0
KCO1 141638Z 23007KT 06/02 A3029 RMK A01 T00550017  RH  077%=      5-min Rain = 0
KCO1 141639Z 23007KT 06/02 A3029 RMK A01 T00570018  RH  076%=      5-min Rain = 0
KCO1 141640Z 22007KT 06/02 A3029 RMK A01 T00560017  RH  076%=      5-min Rain = 0
KCO1 141641Z 23007KT 06/02 A3029 RMK A01 T00560017  RH  076%=      5-min Rain = 0
KCO1 141642Z 24007KT 05/02 A3029 RMK A01 T00540015  RH  076%=      5-min Rain = 0
KCO1 141643Z 23008KT 05/02 A3029 RMK A01 T00540016  RH  076%=      5-min Rain = 0
KCO1 141644Z 23007KT 05/02 A3029 RMK A01 T00540016  RH  076%=      5-min Rain = 0
KCO1 141645Z 23008KT 06/02 A3029 RMK A01 T00550017  RH  077%=      5-min Rain = 0
KCO1 141646Z 22007KT 06/02 A3029 RMK A01 T00550016  RH  076%=      5-min Rain = 0
KCO1 141647Z 23007KT 06/02 A3029 RMK A01 T00550016  RH  076%=      5-min Rain = 0
KCO1 141648Z 22007KT 06/02 A3029 RMK A01 T00550017  RH  076%=      5-min Rain = 0
KCO1 141649Z 21007KT 06/02 A303 RMK A01 T00560017  RH  076%=      5-min Rain = 0
KCO1 141650Z 22008KT 06/02 A3029 RMK A01 T00560015  RH  075%=      5-min Rain = 0
KCO1 141651Z 24007KT 06/02 A3029 RMK A01 T00550016  RH  076%=      5-min Rain = 0
KCO1 141652Z 23007KT 06/02 A3029 RMK A01 T00550016  RH  076%=      5-min Rain = 0
KCO1 141653Z 23007KT 06/02 A3029 RMK A01 T00550016  RH  076%=      5-min Rain = 0
KCO1 141654Z 24007KT 06/02 A303 RMK A01 T00560017  RH  076%=      5-min Rain = 0
KCO1 141655Z 24007KT 06/02 A303 RMK A01 T00560016  RH  075%=      5-min Rain = 0
KCO1 141656Z 22007KT 06/02 A303 RMK A01 T00550016  RH  076%=      5-min Rain = 0
KCO1 141657Z 22007KT 06/02 A303 RMK A01 T00560017  RH  076%=      5-min Rain = 0
KCO1 141658Z 24005KT 06/02 A303 RMK A01 T00570017  RH  076%=      5-min Rain = 0
KCO1 141659Z 23006KT 06/02 A3029 RMK A01 T00570017  RH  075%=      5-min Rain = 0
KCO1 141700Z 22006KT 06/02 A3029 RMK A01 T00580017  RH  075%=      5-min Rain = 0
KCO1 141701Z 22007KT 06/02 A3029 RMK A01 T00580017  RH  075%=      5-min Rain = 0
KCO1 141702Z 22007KT 06/02 A3029 RMK A01 T00580017  RH  075%=      5-min Rain = 0
KCO1 141703Z 24006KT 06/02 A3029 RMK A01 T00580016  RH  075%=      5-min Rain = 0
KCO1 141704Z 24005KT 06/02 A3029 RMK A01 T00580017  RH  075%=      5-min Rain = 0
KCO1 141705Z 24005KT 06/02 A3029 RMK A01 T00600020  RH  075%=      5-min Rain = 0
KCO1 141706Z 24006KT 06/02 A3029 RMK A01 T00610017  RH  074%=      5-min Rain = 0
KCO1 141707Z 24005KT 06/02 A3029 RMK A01 T00600017  RH  074%=      5-min Rain = 0
KCO1 141708Z 24004KT 06/01 A3029 RMK A01 T00580014  RH  073%=      5-min Rain = 0
KCO1 141709Z 24004KT 06/02 A3029 RMK A01 T00580016  RH  075%=      5-min Rain = 0
KCO1 141710Z 24005KT 06/02 A3029 RMK A01 T00610021  RH  075%=      5-min Rain = 0
KCO1 141711Z 24005KT 06/02 A3029 RMK A01 T00620017  RH  073%=      5-min Rain = 0
KCO1 141712Z 25004KT 06/02 A3029 RMK A01 T00610016  RH  073%=      5-min Rain = 0
KCO1 141713Z 25005KT 06/02 A3029 RMK A01 T00610016  RH  073%=      5-min Rain = 0
KCO1 141714Z 21006KT 06/02 A3029 RMK A01 T00620018  RH  073%=      5-min Rain = 0
KCO1 141715Z 21007KT 06/02 A3029 RMK A01 T00640019  RH  073%=      5-min Rain = 0
KCO1 141716Z 21006KT 06/02 A3029 RMK A01 T00630017  RH  072%=      5-min Rain = 0
KCO1 141717Z 23004KT 06/02 A3029 RMK A01 T00640018  RH  073%=      5-min Rain = 0
KCO1 141718Z 21006KT 07/02 A3029 RMK A01 T00650020  RH  073%=      5-min Rain = 0
KCO1 141719Z 21005KT 07/02 A3029 RMK A01 T00680022  RH  073%=      5-min Rain = 0
KCO1 141720Z 22006KT 07/02 A3029 RMK A01 T00690020  RH  071%=      5-min Rain = 0
KCO1 141721Z 22006KT 07/02 A3029 RMK A01 T00690020  RH  071%=      5-min Rain = 0
KCO1 141722Z 22004KT 07/02 A3029 RMK A01 T00690019  RH  070%=      5-min Rain = 0
KCO1 141723Z 24004KT 07/02 A3029 RMK A01 T00690018  RH  070%=      5-min Rain = 0
KCO1 141724Z 23003KT 07/02 A3029 RMK A01 T00690020  RH  071%=      5-min Rain = 0
KCO1 141725Z 24004KT 07/02 A3029 RMK A01 T00700020  RH  071%=      5-min Rain = 0
KCO1 141726Z 21004KT 07/02 A3028 RMK A01 T00700019  RH  070%=      5-min Rain = 0
KCO1 141727Z 23004KT 07/02 A3028 RMK A01 T00700019  RH  070%=      5-min Rain = 0
KCO1 141728Z 23005KT 07/02 A3028 RMK A01 T00700019  RH  070%=      5-min Rain = 0
KCO1 141729Z 24005KT 07/02 A3028 RMK A01 T00710021  RH  070%=      5-min Rain = 0
KCO1 141730Z 21006KT 07/02 A3028 RMK A01 T00720021  RH  070%=      5-min Rain = 0
KCO1 141731Z 21004KT 07/02 A3028 RMK A01 T00720019  RH  069%=      5-min Rain = 0
KCO1 141732Z 20004KT 07/02 A3028 RMK A01 T00710019  RH  069%=      5-min Rain = 0
KCO1 141733Z 22004KT 07/02 A3028 RMK A01 T00710019  RH  069%=      5-min Rain = 0
KCO1 141734Z 22003KT 07/02 A3028 RMK A01 T00710019  RH  069%=      5-min Rain = 0
KCO1 141735Z 17003KT 07/02 A3028 RMK A01 T00720019  RH  069%=      5-min Rain = 0
KCO1 141736Z 23003KT 08/02 A3028 RMK A01 T00750023  RH  070%=      5-min Rain = 0
KCO1 141737Z 22002KT 08/02 A3028 RMK A01 T00770023  RH  069%=      5-min Rain = 0
KCO1 141738Z 27003KT 08/02 A3028 RMK A01 T00770022  RH  068%=      5-min Rain = 0
KCO1 141739Z 23003KT 08/02 A3028 RMK A01 T00770020  RH  067%=      5-min Rain = 0
KCO1 141740Z 22004KT 08/02 A3028 RMK A01 T00750019  RH  068%=      5-min Rain = 0
KCO1 141741Z 20005KT 08/02 A3028 RMK A01 T00760021  RH  068%=      5-min Rain = 0
KCO1 141742Z 21003KT 08/02 A3028 RMK A01 T00760019  RH  067%=      5-min Rain = 0
KCO1 141743Z 19003KT 08/02 A3028 RMK A01 T00760020  RH  068%=      5-min Rain = 0
KCO1 141744Z 17004KT 08/02 A3028 RMK A01 T00770020  RH  067%=      5-min Rain = 0
KCO1 141745Z 14002KT 08/02 A3028 RMK A01 T00760017  RH  066%=      5-min Rain = 0
KCO1 141746Z 18003KT 08/02 A3028 RMK A01 T00760019  RH  067%=      5-min Rain = 0
KCO1 141747Z 23005KT 08/02 A3028 RMK A01 T00780022  RH  067%=      5-min Rain = 0
KCO1 141748Z 19004KT 08/02 A3028 RMK A01 T00790022  RH  067%=      5-min Rain = 0
KCO1 141749Z 20002KT 08/02 A3028 RMK A01 T00800021  RH  066%=      5-min Rain = 0
KCO1 141750Z 18002KT 08/02 A3028 RMK A01 T00800020  RH  066%=      5-min Rain = 0
KCO1 141751Z 23002KT 08/02 A3028 RMK A01 T00810019  RH  065%=      5-min Rain = 0
KCO1 141752Z 26003KT 08/02 A3028 RMK A01 T00810021  RH  066%=      5-min Rain = 0
KCO1 141753Z 26002KT 08/02 A3028 RMK A01 T00800019  RH  065%=      5-min Rain = 0
KCO1 141754Z 20002KT 08/02 A3028 RMK A01 T00790019  RH  066%=      5-min Rain = 0
KCO1 141755Z 20002KT 08/02 A3028 RMK A01 T00800020  RH  066%=      5-min Rain = 0
KCO1 141756Z 25003KT 08/02 A3028 RMK A01 T00810021  RH  065%=      5-min Rain = 0
KCO1 141757Z 24004KT 08/02 A3028 RMK A01 T00820021  RH  065%=      5-min Rain = 0
KCO1 141758Z 26004KT 08/02 A3028 RMK A01 T00820022  RH  066%=      5-min Rain = 0
KCO1 141759Z 25005KT 08/02 A3028 RMK A01 T00820022  RH  066%=      5-min Rain = 0
KCO1 141800Z 24003KT 08/02 A3028 RMK A01 T00820021  RH  065%=      5-min Rain = 0
KCO1 141801Z 18004KT 08/02 A3028 RMK A01 T00820022  RH  066%=      5-min Rain = 0
KCO1 141802Z 15005KT 08/02 A3027 RMK A01 T00840024  RH  066%=      5-min Rain = 0
KCO1 141803Z 15003KT 09/02 A3027 RMK A01 T00860023  RH  065%=      5-min Rain = 0
KCO1 141804Z 12003KT 09/03 A3027 RMK A01 T00880025  RH  065%=      5-min Rain = 0
KCO1 141805Z 13002KT 09/02 A3027 RMK A01 T00890023  RH  063%=      5-min Rain = 0
KCO1 141806Z 18001KT 09/02 A3027 RMK A01 T00890022  RH  063%=      5-min Rain = 0
KCO1 141807Z 19004KT 09/03 A3027 RMK A01 T00910025  RH  063%=      5-min Rain = 0
KCO1 141808Z 18003KT 09/03 A3027 RMK A01 T00930025  RH  063%=      5-min Rain = 0
KCO1 141809Z 14005KT 09/03 A3027 RMK A01 T00920025  RH  063%=      5-min Rain = 0
KCO1 141810Z 11003KT 09/02 A3027 RMK A01 T00910023  RH  062%=      5-min Rain = 0
KCO1 141811Z 15002KT 09/02 A3027 RMK A01 T00910024  RH  063%=      5-min Rain = 0
KCO1 141812Z 20002KT 09/03 A3027 RMK A01 T00930027  RH  063%=      5-min Rain = 0
KCO1 141813Z 14003KT 09/02 A3026 RMK A01 T00940024  RH  062%=      5-min Rain = 0
KCO1 141814Z 14005KT 09/02 A3026 RMK A01 T00930024  RH  062%=      5-min Rain = 0
KCO1 141815Z 15006KT 09/03 A3026 RMK A01 T00940026  RH  062%=      5-min Rain = 0
KCO1 141816Z 14005KT 10/03 A3026 RMK A01 T00950025  RH  061%=      5-min Rain = 0
KCO1 141817Z 14004KT 09/02 A3026 RMK A01 T00940024  RH  061%=      5-min Rain = 0
KCO1 141818Z 13004KT 09/02 A3026 RMK A01 T00920023  RH  062%=      5-min Rain = 0
KCO1 141819Z 14005KT 09/02 A3026 RMK A01 T00930024  RH  062%=      5-min Rain = 0
KCO1 141820Z 16004KT 09/02 A3026 RMK A01 T00920023  RH  062%=      5-min Rain = 0
KCO1 141821Z 15004KT 09/02 A3026 RMK A01 T00920023  RH  062%=      5-min Rain = 0
KCO1 141822Z 11004KT 09/02 A3026 RMK A01 T00920024  RH  062%=      5-min Rain = 0
KCO1 141823Z 13003KT 10/03 A3026 RMK A01 T00950027  RH  063%=      5-min Rain = 0
KCO1 141824Z 15003KT 10/02 A3026 RMK A01 T00960024  RH  061%=      5-min Rain = 0
KCO1 141825Z 17002KT 10/02 A3026 RMK A01 T00950022  RH  060%=      5-min Rain = 0
KCO1 141826Z 12002KT 09/02 A3026 RMK A01 T00940024  RH  061%=      5-min Rain = 0
KCO1 141827Z 08003KT 10/03 A3026 RMK A01 T00950026  RH  062%=      5-min Rain = 0
KCO1 141828Z 06003KT 10/02 A3026 RMK A01 T00960024  RH  061%=      5-min Rain = 0
KCO1 141829Z 04002KT 09/02 A3026 RMK A01 T00940023  RH  061%=      5-min Rain = 0
KCO1 141830Z 05000KT 09/02 A3026 RMK A01 T00930022  RH  061%=      5-min Rain = 0
KCO1 141831Z 12002KT 09/03 A3026 RMK A01 T00940026  RH  062%=      5-min Rain = 0
KCO1 141832Z 15004KT 10/03 A3025 RMK A01 T00990031  RH  062%=      5-min Rain = 0
KCO1 141833Z 14006KT 11/03 A3025 RMK A01 T01050033  RH  061%=      5-min Rain = 0
KCO1 141834Z 15004KT 11/03 A3025 RMK A01 T01070030  RH  059%=      5-min Rain = 0
KCO1 141835Z 17004KT 11/03 A3025 RMK A01 T01070028  RH  058%=      5-min Rain = 0
KCO1 141836Z 20001KT 11/03 A3025 RMK A01 T01050026  RH  058%=      5-min Rain = 0
KCO1 141837Z 25002KT 10/03 A3025 RMK A01 T01030026  RH  059%=      5-min Rain = 0
KCO1 141838Z 14003KT 10/03 A3025 RMK A01 T01010026  RH  060%=      5-min Rain = 0
KCO1 141839Z 14002KT 10/03 A3025 RMK A01 T01030028  RH  060%=      5-min Rain = 0
KCO1 141840Z 09004KT 11/03 A3025 RMK A01 T01050029  RH  059%=      5-min Rain = 0
KCO1 141841Z 08003KT 11/03 A3025 RMK A01 T01070027  RH  058%=      5-min Rain = 0
KCO1 141842Z 06002KT 11/02 A3025 RMK A01 T01050024  RH  057%=      5-min Rain = 0
KCO1 141843Z 05005KT 10/03 A3025 RMK A01 T01040026  RH  058%=      5-min Rain = 0
KCO1 141844Z 04003KT 10/03 A3025 RMK A01 T01030025  RH  059%=      5-min Rain = 0
KCO1 141845Z 03002KT 10/02 A3025 RMK A01 T01010024  RH  059%=      5-min Rain = 0
KCO1 141846Z 01002KT 10/02 A3025 RMK A01 T01000023  RH  059%=      5-min Rain = 0
KCO1 141847Z 01002KT 10/03 A3025 RMK A01 T00990025  RH  060%=      5-min Rain = 0
KCO1 141848Z 02001KT 10/03 A3025 RMK A01 T00990025  RH  060%=      5-min Rain = 0
KCO1 141849Z 12003KT 10/03 A3025 RMK A01 T01000027  RH  060%=      5-min Rain = 0
KCO1 141850Z 11001KT 10/03 A3025 RMK A01 T01030028  RH  060%=      5-min Rain = 0
KCO1 141851Z 15001KT 11/03 A3024 RMK A01 T01060029  RH  059%=      5-min Rain = 0
KCO1 141852Z 05001KT 11/03 A3024 RMK A01 T01080031  RH  059%=      5-min Rain = 0
KCO1 141853Z 07002KT 11/03 A3024 RMK A01 T01100032  RH  058%=      5-min Rain = 0
KCO1 141854Z 12005KT 11/03 A3024 RMK A01 T01110029  RH  057%=      5-min Rain = 0
KCO1 141855Z 12003KT 11/03 A3024 RMK A01 T01110028  RH  057%=      5-min Rain = 0
KCO1 141856Z 10000KT 11/03 A3024 RMK A01 T01100027  RH  056%=      5-min Rain = 0
KCO1 141857Z 14003KT 11/03 A3024 RMK A01 T01110029  RH  057%=      5-min Rain = 0
KCO1 141858Z 11005KT 11/03 A3024 RMK A01 T01130031  RH  057%=      5-min Rain = 0
KCO1 141859Z 09005KT 11/03 A3024 RMK A01 T01140030  RH  056%=      5-min Rain = 0
KCO1 141900Z 07003KT 11/03 A3024 RMK A01 T01140030  RH  056%=      5-min Rain = 0
KCO1 141901Z 10002KT 11/03 A3024 RMK A01 T01140028  RH  055%=      5-min Rain = 0
KCO1 141902Z 07003KT 11/03 A3024 RMK A01 T01140028  RH  056%=      5-min Rain = 0
KCO1 141903Z 06005KT 11/03 A3024 RMK A01 T01140029  RH  056%=      5-min Rain = 0
KCO1 141904Z 09007KT 11/03 A3024 RMK A01 T01140031  RH  056%=      5-min Rain = 0
KCO1 141905Z 08005KT 12/03 A3024 RMK A01 T01150031  RH  056%=      5-min Rain = 0
KCO1 141906Z 09006KT 12/03 A3024 RMK A01 T01170032  RH  056%=      5-min Rain = 0
KCO1 141907Z 12007KT 12/03 A3024 RMK A01 T01190032  RH  055%=      5-min Rain = 0
KCO1 141908Z 11008KT 12/03 A3024 RMK A01 T01180032  RH  055%=      5-min Rain = 0
KCO1 141909Z 10008KT 12/03 A3023 RMK A01 T01180032  RH  055%=      5-min Rain = 0
KCO1 141910Z 11009KT 12/03 A3023 RMK A01 T01210033  RH  055%=      5-min Rain = 0
KCO1 141911Z 11006KT 12/03 A3023 RMK A01 T01210030  RH  054%=      5-min Rain = 0
KCO1 141912Z 09002KT 12/03 A3023 RMK A01 T01200030  RH  054%=      5-min Rain = 0
KCO1 141913Z 11004KT 12/03 A3023 RMK A01 T01200030  RH  054%=      5-min Rain = 0
KCO1 141914Z 12005KT 12/03 A3023 RMK A01 T01200030  RH  054%=      5-min Rain = 0
KCO1 141915Z 12006KT 12/03 A3023 RMK A01 T01210033  RH  055%=      5-min Rain = 0
KCO1 141916Z 14004KT 12/03 A3023 RMK A01 T01220032  RH  054%=      5-min Rain = 0
KCO1 141917Z 14003KT 12/03 A3023 RMK A01 T01230031  RH  053%=      5-min Rain = 0
KCO1 141918Z 10004KT 12/03 A3023 RMK A01 T01220030  RH  053%=      5-min Rain = 0
KCO1 141919Z 07006KT 12/03 A3023 RMK A01 T01220030  RH  053%=      5-min Rain = 0
KCO1 141920Z 08006KT 12/03 A3023 RMK A01 T01190027  RH  053%=      5-min Rain = 0
KCO1 141921Z 07004KT 12/03 A3023 RMK A01 T01170027  RH  054%=      5-min Rain = 0
KCO1 141922Z 10002KT 12/03 A3023 RMK A01 T01160026  RH  054%=      5-min Rain = 0
KCO1 141923Z 12003KT 12/03 A3023 RMK A01 T01160026  RH  054%=      5-min Rain = 0
KCO1 141924Z 12004KT 12/03 A3022 RMK A01 T01170028  RH  055%=      5-min Rain = 0
KCO1 141925Z 09006KT 12/03 A3022 RMK A01 T01200032  RH  055%=      5-min Rain = 0
KCO1 141926Z 11004KT 12/03 A3022 RMK A01 T01200027  RH  053%=      5-min Rain = 0
KCO1 141927Z 10003KT 12/03 A3022 RMK A01 T01180026  RH  053%=      5-min Rain = 0
KCO1 141928Z 11006KT 12/03 A3022 RMK A01 T01180029  RH  054%=      5-min Rain = 0
KCO1 141929Z 10004KT 12/03 A3022 RMK A01 T01200028  RH  054%=      5-min Rain = 0
KCO1 141930Z 12004KT 12/03 A3022 RMK A01 T01190027  RH  053%=      5-min Rain = 0
KCO1 141931Z 14006KT 12/03 A3022 RMK A01 T01210030  RH  054%=      5-min Rain = 0
KCO1 141932Z 14006KT 12/03 A3022 RMK A01 T01230032  RH  054%=      5-min Rain = 0
KCO1 141933Z 12008KT 12/03 A3022 RMK A01 T01240030  RH  052%=      5-min Rain = 0
KCO1 141934Z 11006KT 12/03 A3022 RMK A01 T01230029  RH  053%=      5-min Rain = 0
KCO1 141935Z 10004KT 12/03 A3021 RMK A01 T01220028  RH  053%=      5-min Rain = 0
KCO1 141936Z 13002KT 12/03 A3021 RMK A01 T01210026  RH  052%=      5-min Rain = 0
KCO1 141937Z 09003KT 12/03 A3021 RMK A01 T01200028  RH  053%=      5-min Rain = 0
KCO1 141938Z 09003KT 12/03 A3021 RMK A01 T01210028  RH  053%=      5-min Rain = 0
KCO1 141939Z 12006KT 12/03 A3021 RMK A01 T01220030  RH  053%=      5-min Rain = 0
KCO1 141940Z 09007KT 13/03 A3021 RMK A01 T01250031  RH  053%=      5-min Rain = 0
KCO1 141941Z 09005KT 13/03 A3021 RMK A01 T01250030  RH  052%=      5-min Rain = 0
KCO1 141942Z 11003KT 12/03 A3021 RMK A01 T01240028  RH  052%=      5-min Rain = 0
KCO1 141943Z 12007KT 12/03 A3021 RMK A01 T01240028  RH  052%=      5-min Rain = 0
KCO1 141944Z 13005KT 12/03 A3021 RMK A01 T01240028  RH  052%=      5-min Rain = 0
KCO1 141945Z 12006KT 12/03 A3021 RMK A01 T01240030  RH  053%=      5-min Rain = 0
KCO1 141946Z 12008KT 13/03 A3021 RMK A01 T01250029  RH  052%=      5-min Rain = 0
KCO1 141947Z 13007KT 13/03 A3021 RMK A01 T01250029  RH  052%=      5-min Rain = 0
KCO1 141948Z 14005KT 12/03 A3021 RMK A01 T01240026  RH  051%=      5-min Rain = 0
KCO1 141949Z 14005KT 12/03 A302 RMK A01 T01220026  RH  052%=      5-min Rain = 0
KCO1 141950Z 10007KT 12/03 A302 RMK A01 T01240032  RH  053%=      5-min Rain = 0
KCO1 141951Z 10008KT 13/03 A302 RMK A01 T01280031  RH  052%=      5-min Rain = 0
KCO1 141952Z 10009KT 13/03 A302 RMK A01 T01290030  RH  051%=      5-min Rain = 0
KCO1 141953Z 12006KT 13/03 A302 RMK A01 T01250026  RH  051%=      5-min Rain = 0
KCO1 141954Z 12006KT 12/03 A302 RMK A01 T01240027  RH  051%=      5-min Rain = 0
KCO1 141955Z 10010KT 12/03 A302 RMK A01 T01230027  RH  052%=      5-min Rain = 0
KCO1 141956Z 10009KT 12/03 A302 RMK A01 T01230026  RH  052%=      5-min Rain = 0
KCO1 141957Z 10007KT 12/03 A302 RMK A01 T01220027  RH  052%=      5-min Rain = 0
KCO1 141958Z 10005KT 12/03 A302 RMK A01 T01230029  RH  053%=      5-min Rain = 0
KCO1 141959Z 11006KT 13/03 A302 RMK A01 T01250029  RH  052%=      5-min Rain = 0
KCO1 142000Z 11008KT 13/03 A302 RMK A01 T01260029  RH  052%=      5-min Rain = 0
KCO1 142001Z 11009KT 13/03 A302 RMK A01 T01280031  RH  051%=      5-min Rain = 0
KCO1 142002Z 12010KT 13/03 A302 RMK A01 T01280027  RH  050%=      5-min Rain = 0
KCO1 142003Z 12009KT 13/03 A302 RMK A01 T01260027  RH  051%=      5-min Rain = 0
KCO1 142004Z 13008KT 13/03 A3019 RMK A01 T01270028  RH  051%=      5-min Rain = 0
KCO1 142005Z 13007KT 13/03 A3019 RMK A01 T01270027  RH  051%=      5-min Rain = 0
KCO1 142006Z 09006KT 13/03 A3019 RMK A01 T01260026  RH  051%=      5-min Rain = 0
KCO1 142007Z 09005KT 13/03 A3019 RMK A01 T01270028  RH  051%=      5-min Rain = 0
KCO1 142008Z 09009KT 13/03 A3019 RMK A01 T01280030  RH  051%=      5-min Rain = 0
KCO1 142009Z 08010KT 13/03 A3019 RMK A01 T01280027  RH  050%=      5-min Rain = 0
KCO1 142010Z 09010KT 13/03 A3019 RMK A01 T01270028  RH  051%=      5-min Rain = 0
KCO1 142011Z 11009KT 13/03 A3019 RMK A01 T01290029  RH  051%=      5-min Rain = 0
KCO1 142012Z 10006KT 13/03 A3019 RMK A01 T01280027  RH  050%=      5-min Rain = 0
KCO1 142013Z 11004KT 13/03 A3019 RMK A01 T01280027  RH  050%=      5-min Rain = 0
KCO1 142014Z 11008KT 13/03 A3019 RMK A01 T01290029  RH  051%=      5-min Rain = 0
KCO1 142015Z 09008KT 13/03 A3019 RMK A01 T01300026  RH  049%=      5-min Rain = 0
KCO1 142016Z 10007G12KT 13/03 A3019 RMK A01 T01280027  RH  050%=      5-min Rain = 0
KCO1 142017Z 12009KT 13/03 A3019 RMK A01 T01320031  RH  050%=      5-min Rain = 0
KCO1 142018Z 10006KT 13/03 A3019 RMK A01 T01320028  RH  049%=      5-min Rain = 0
KCO1 142019Z 08009KT 13/03 A3019 RMK A01 T01320029  RH  050%=      5-min Rain = 0
KCO1 142020Z 09007KT 13/03 A3019 RMK A01 T01330029  RH  049%=      5-min Rain = 0
KCO1 142021Z 08006KT 13/03 A3019 RMK A01 T01320028  RH  049%=      5-min Rain = 0
KCO1 142022Z 10009KT 13/03 A3019 RMK A01 T01320026  RH  049%=      5-min Rain = 0
KCO1 142023Z 08009KT 13/03 A3019 RMK A01 T01300027  RH  049%=      5-min Rain = 0
KCO1 142024Z 07007KT 13/03 A3018 RMK A01 T01300026  RH  049%=      5-min Rain = 0
KCO1 142025Z 09010KT 13/03 A3018 RMK A01 T01300029  RH  050%=      5-min Rain = 0
KCO1 142026Z 09008KT 13/03 A3018 RMK A01 T01320028  RH  049%=      5-min Rain = 0
KCO1 142027Z 10009KT 13/03 A3018 RMK A01 T01320028  RH  049%=      5-min Rain = 0
KCO1 142028Z 10010KT 13/03 A3018 RMK A01 T01340030  RH  049%=      5-min Rain = 0
KCO1 142029Z 11009KT 14/03 A3018 RMK A01 T01350029  RH  049%=      5-min Rain = 0
KCO1 142030Z 12009KT 13/03 A3018 RMK A01 T01340027  RH  048%=      5-min Rain = 0
KCO1 142031Z 12007KT 13/03 A3018 RMK A01 T01330027  RH  049%=      5-min Rain = 0
KCO1 142032Z 11006G11KT 13/03 A3018 RMK A01 T01330027  RH  049%=      5-min Rain = 0
KCO1 142033Z 09008KT 13/03 A3018 RMK A01 T01330028  RH  049%=      5-min Rain = 0
KCO1 142034Z 10009KT 14/03 A3018 RMK A01 T01360031  RH  049%=      5-min Rain = 0
KCO1 142035Z 10009KT 14/03 A3018 RMK A01 T01360027  RH  048%=      5-min Rain = 0
KCO1 142036Z 10008KT 13/03 A3018 RMK A01 T01340027  RH  048%=      5-min Rain = 0
KCO1 142037Z 12010KT 13/03 A3018 RMK A01 T01330026  RH  048%=      5-min Rain = 0
KCO1 142038Z 12009KT 13/03 A3018 RMK A01 T01320026  RH  049%=      5-min Rain = 0
KCO1 142039Z 12007KT 13/03 A3017 RMK A01 T01320025  RH  049%=      5-min Rain = 0
KCO1 142040Z 12007KT 13/03 A3017 RMK A01 T01320028  RH  049%=      5-min Rain = 0
KCO1 142041Z 12009KT 14/03 A3017 RMK A01 T01350028  RH  048%=      5-min Rain = 0
KCO1 142042Z 11011KT 14/03 A3017 RMK A01 T01350028  RH  048%=      5-min Rain = 0
KCO1 142043Z 10007KT 14/03 A3017 RMK A01 T01360029  RH  048%=      5-min Rain = 0
KCO1 142044Z 11005KT 14/03 A3017 RMK A01 T01380030  RH  048%=      5-min Rain = 0
KCO1 142045Z 12009KT 14/03 A3017 RMK A01 T01400031  RH  048%=      5-min Rain = 0
KCO1 142046Z 12008KT 14/03 A3017 RMK A01 T01400028  RH  047%=      5-min Rain = 0
KCO1 142047Z 09010KT 14/03 A3017 RMK A01 T01400029  RH  047%=      5-min Rain = 0
KCO1 142048Z 09012KT 14/03 A3017 RMK A01 T01410030  RH  047%=      5-min Rain = 0
KCO1 142049Z 07007G12KT 14/03 A3016 RMK A01 T01380026  RH  047%=      5-min Rain = 0
KCO1 142050Z 08008KT 14/03 A3016 RMK A01 T01360029  RH  048%=      5-min Rain = 0
KCO1 142051Z 11011KT 14/03 A3016 RMK A01 T01380030  RH  048%=      5-min Rain = 0
KCO1 142052Z 11009KT 14/03 A3016 RMK A01 T01390028  RH  047%=      5-min Rain = 0
KCO1 142053Z 11013KT 14/03 A3016 RMK A01 T01380028  RH  047%=      5-min Rain = 0
KCO1 142054Z 12009KT 14/03 A3016 RMK A01 T01370027  RH  048%=      5-min Rain = 0
KCO1 142055Z 11008KT 14/03 A3016 RMK A01 T01350027  RH  048%=      5-min Rain = 0
KCO1 142056Z 10010KT 14/03 A3016 RMK A01 T01360030  RH  049%=      5-min Rain = 0
KCO1 142057Z 11009KT 14/03 A3016 RMK A01 T01370030  RH  048%=      5-min Rain = 0
KCO1 142058Z 09011KT 14/03 A3016 RMK A01 T01400032  RH  048%=      5-min Rain = 0
KCO1 142059Z 10011KT 14/03 A3016 RMK A01 T01410031  RH  048%=      5-min Rain = 0
KCO1 142100Z 09010KT 14/03 A3016 RMK A01 T01370026  RH  047%=      5-min Rain = 0
KCO1 142101Z 10012KT 14/03 A3016 RMK A01 T01350028  RH  048%=      5-min Rain = 0
KCO1 142102Z 11012KT 14/03 A3016 RMK A01 T01350029  RH  048%=      5-min Rain = 0
KCO1 142103Z 09012KT 14/03 A3016 RMK A01 T01350028  RH  048%=      5-min Rain = 0
KCO1 142104Z 10009KT 13/03 A3016 RMK A01 T01330028  RH  049%=      5-min Rain = 0
KCO1 142105Z 10010KT 13/03 A3016 RMK A01 T01330028  RH  049%=      5-min Rain = 0
KCO1 142106Z 08010KT 13/03 A3016 RMK A01 T01340029  RH  049%=      5-min Rain = 0
KCO1 142107Z 08011KT 13/03 A3015 RMK A01 T01340027  RH  048%=      5-min Rain = 0
KCO1 142108Z 09010KT 13/03 A3015 RMK A01 T01330027  RH  049%=      5-min Rain = 0
KCO1 142109Z 09011KT 13/03 A3015 RMK A01 T01320027  RH  049%=      5-min Rain = 0
KCO1 142110Z 11009KT 13/03 A3015 RMK A01 T01330030  RH  049%=      5-min Rain = 0
KCO1 142111Z 11010KT 14/03 A3015 RMK A01 T01370030  RH  049%=      5-min Rain = 0
KCO1 142112Z 10013KT 14/03 A3015 RMK A01 T01370029  RH  048%=      5-min Rain = 0
KCO1 142113Z 10012KT 14/03 A3015 RMK A01 T01360027  RH  048%=      5-min Rain = 0
KCO1 142114Z 10011KT 13/03 A3015 RMK A01 T01330025  RH  048%=      5-min Rain = 0
KCO1 142115Z 09013KT 13/03 A3015 RMK A01 T01310025  RH  048%=      5-min Rain = 0
KCO1 142116Z 09011KT 13/03 A3015 RMK A01 T01320028  RH  049%=      5-min Rain = 0
KCO1 142117Z 09012KT 13/03 A3015 RMK A01 T01340030  RH  049%=      5-min Rain = 0
KCO1 142118Z 08013KT 14/03 A3015 RMK A01 T01360028  RH  048%=      5-min Rain = 0
KCO1 142119Z 07011KT 13/03 A3015 RMK A01 T01340026  RH  048%=      5-min Rain = 0
KCO1 142120Z 10009KT 13/03 A3015 RMK A01 T01330028  RH  049%=      5-min Rain = 0
KCO1 142121Z 09012KT 14/03 A3015 RMK A01 T01360030  RH  049%=      5-min Rain = 0
KCO1 142122Z 09012KT 14/03 A3015 RMK A01 T01360027  RH  048%=      5-min Rain = 0
KCO1 142123Z 10013KT 13/03 A3015 RMK A01 T01340025  RH  048%=      5-min Rain = 0
KCO1 142124Z 09013KT 13/02 A3015 RMK A01 T01320024  RH  048%=      5-min Rain = 0
KCO1 142125Z 10008KT 13/03 A3015 RMK A01 T01300025  RH  049%=      5-min Rain = 0
KCO1 142126Z 11011KT 13/03 A3015 RMK A01 T01330030  RH  050%=      5-min Rain = 0
KCO1 142127Z 11011KT 14/03 A3015 RMK A01 T01360028  RH  048%=      5-min Rain = 0
KCO1 142128Z 10010KT 13/02 A3015 RMK A01 T01330024  RH  047%=      5-min Rain = 0
KCO1 142129Z 10011KT 13/02 A3015 RMK A01 T01300023  RH  048%=      5-min Rain = 0
KCO1 142130Z 10011KT 13/03 A3015 RMK A01 T01300026  RH  049%=      5-min Rain = 0
KCO1 142131Z 10011KT 13/03 A3015 RMK A01 T01310025  RH  049%=      5-min Rain = 0
KCO1 142132Z 09008KT 13/03 A3015 RMK A01 T01320027  RH  049%=      5-min Rain = 0
KCO1 142133Z 09010KT 13/03 A3015 RMK A01 T01330027  RH  048%=      5-min Rain = 0
KCO1 142134Z 11012KT 13/03 A3015 RMK A01 T01340027  RH  048%=      5-min Rain = 0
KCO1 142135Z 11013KT 13/03 A3015 RMK A01 T01340025  RH  048%=      5-min Rain = 0
KCO1 142136Z 12010KT 13/03 A3015 RMK A01 T01320025  RH  048%=      5-min Rain = 0
KCO1 142137Z 10011KT 13/03 A3015 RMK A01 T01310025  RH  048%=      5-min Rain = 0
KCO1 142138Z 09008KT 13/03 A3015 RMK A01 T01310026  RH  049%=      5-min Rain = 0
KCO1 142139Z 09009KT 13/03 A3015 RMK A01 T01330028  RH  049%=      5-min Rain = 0
KCO1 142140Z 09011KT 14/03 A3014 RMK A01 T01350028  RH  048%=      5-min Rain = 0
KCO1 142141Z 09012G17KT 14/03 A3015 RMK A01 T01350027  RH  048%=      5-min Rain = 0
KCO1 142142Z 09010KT 13/03 A3014 RMK A01 T01320025  RH  048%=      5-min Rain = 0
KCO1 142143Z 08012KT 13/03 A3014 RMK A01 T01320028  RH  049%=      5-min Rain = 0
KCO1 142144Z 10014KT 13/03 A3014 RMK A01 T01330029  RH  049%=      5-min Rain = 0
KCO1 142145Z 11014KT 13/03 A3014 RMK A01 T01340026  RH  048%=      5-min Rain = 0
KCO1 142146Z 12014KT 13/03 A3014 RMK A01 T01330026  RH  048%=      5-min Rain = 0
KCO1 142147Z 10014KT 13/03 A3014 RMK A01 T01320026  RH  048%=      5-min Rain = 0
KCO1 142148Z 10014KT 13/03 A3014 RMK A01 T01310025  RH  048%=      5-min Rain = 0
KCO1 142149Z 11012KT 13/03 A3014 RMK A01 T01300025  RH  049%=      5-min Rain = 0
KCO1 142150Z 11010KT 13/03 A3014 RMK A01 T01310026  RH  049%=      5-min Rain = 0
KCO1 142151Z 10012KT 13/02 A3014 RMK A01 T01310024  RH  048%=      5-min Rain = 0
KCO1 142152Z 10012KT 13/02 A3014 RMK A01 T01300024  RH  048%=      5-min Rain = 0
KCO1 142153Z 10012KT 13/03 A3014 RMK A01 T01300025  RH  049%=      5-min Rain = 0
KCO1 142154Z 10013KT 13/03 A3014 RMK A01 T01310025  RH  049%=      5-min Rain = 0
KCO1 142155Z 10011KT 13/02 A3014 RMK A01 T01310024  RH  048%=      5-min Rain = 0
KCO1 142156Z 10012KT 13/03 A3014 RMK A01 T01300025  RH  049%=      5-min Rain = 0
KCO1 142157Z 09012KT 13/02 A3014 RMK A01 T01300023  RH  048%=      5-min Rain = 0
KCO1 142158Z 10012KT 13/03 A3014 RMK A01 T01300026  RH  049%=      5-min Rain = 0
KCO1 142159Z 09010KT 13/03 A3014 RMK A01 T01320026  RH  049%=      5-min Rain = 0
KCO1 142200Z 10009KT 13/03 A3014 RMK A01 T01330026  RH  048%=      5-min Rain = 0
KCO1 142201Z 11010KT 14/03 A3014 RMK A01 T01350027  RH  048%=      5-min Rain = 0
KCO1 142202Z 09012KT 14/03 A3014 RMK A01 T01350025  RH  047%=      5-min Rain = 0
KCO1 142203Z 09013KT 14/02 A3013 RMK A01 T01350024  RH  047%=      5-min Rain = 0
KCO1 142204Z 10011KT 13/02 A3013 RMK A01 T01340023  RH  047%=      5-min Rain = 0
KCO1 142205Z 11012KT 13/03 A3013 RMK A01 T01340025  RH  047%=      5-min Rain = 0
KCO1 142206Z 10011KT 13/02 A3013 RMK A01 T01340024  RH  047%=      5-min Rain = 0
KCO1 142207Z 10012KT 13/02 A3014 RMK A01 T01330024  RH  047%=      5-min Rain = 0
KCO1 142208Z 09011KT 13/03 A3014 RMK A01 T01340026  RH  048%=      5-min Rain = 0
KCO1 142209Z 09011KT 13/02 A3014 RMK A01 T01340024  RH  047%=      5-min Rain = 0
KCO1 142210Z 09010KT 13/02 A3013 RMK A01 T01320023  RH  048%=      5-min Rain = 0
KCO1 142211Z 09010KT 13/02 A3014 RMK A01 T01320024  RH  048%=      5-min Rain = 0
KCO1 142212Z 10010KT 13/02 A3014 RMK A01 T01320024  RH  048%=      5-min Rain = 0
KCO1 142213Z 11013KT 13/02 A3014 RMK A01 T01330022  RH  047%=      5-min Rain = 0
KCO1 142214Z 09012KT 13/02 A3014 RMK A01 T01330023  RH  047%=      5-min Rain = 0
KCO1 142215Z 08011KT 13/02 A3014 RMK A01 T01330023  RH  047%=      5-min Rain = 0
KCO1 142216Z 08012KT 13/02 A3014 RMK A01 T01330023  RH  047%=      5-min Rain = 0
KCO1 142217Z 08011KT 13/02 A3014 RMK A01 T01330023  RH  047%=      5-min Rain = 0
KCO1 142218Z 08013KT 13/02 A3013 RMK A01 T01320024  RH  048%=      5-min Rain = 0
KCO1 142219Z 09014KT 13/02 A3013 RMK A01 T01320023  RH  047%=      5-min Rain = 0
KCO1 142220Z 09012KT 13/02 A3013 RMK A01 T01310022  RH  047%=      5-min Rain = 0
KCO1 142221Z 10012KT 13/02 A3014 RMK A01 T01310023  RH  048%=      5-min Rain = 0
KCO1 142222Z 10012G18KT 13/02 A3013 RMK A01 T01310022  RH  047%=      5-min Rain = 0
KCO1 142223Z 10013KT 13/02 A3013 RMK A01 T01320023  RH  047%=      5-min Rain = 0
KCO1 142224Z 09014KT 13/02 A3013 RMK A01 T01320021  RH  047%=      5-min Rain = 0
KCO1 142225Z 10011KT 13/02 A3013 RMK A01 T01310021  RH  047%=      5-min Rain = 0
KCO1 142226Z 10011KT 13/02 A3013 RMK A01 T01310022  RH  048%=      5-min Rain = 0
KCO1 142227Z 09009KT 13/02 A3013 RMK A01 T01320022  RH  047%=      5-min Rain = 0
KCO1 142228Z 11014KT 13/02 A3013 RMK A01 T01340024  RH  047%=      5-min Rain = 0
KCO1 142229Z 10010KT 13/02 A3013 RMK A01 T01340022  RH  047%=      5-min Rain = 0
KCO1 142230Z 09013KT 13/02 A3013 RMK A01 T01330022  RH  047%=      5-min Rain = 0
KCO1 142231Z 09013KT 13/02 A3013 RMK A01 T01320021  RH  047%=      5-min Rain = 0
KCO1 142232Z 09011KT 13/02 A3013 RMK A01 T01310021  RH  047%=      5-min Rain = 0
KCO1 142233Z 09013KT 13/02 A3013 RMK A01 T01310022  RH  047%=      5-min Rain = 0
KCO1 142234Z 10011KT 13/02 A3013 RMK A01 T01320022  RH  047%=      5-min Rain = 0
KCO1 142235Z 09012KT 13/02 A3013 RMK A01 T01320023  RH  047%=      5-min Rain = 0
KCO1 142236Z 08012KT 13/02 A3013 RMK A01 T01330023  RH  047%=      5-min Rain = 0
KCO1 142237Z 09013KT 13/02 A3013 RMK A01 T01320022  RH  047%=      5-min Rain = 0
KCO1 142238Z 09011KT 13/02 A3013 RMK A01 T01310021  RH  047%=      5-min Rain = 0
KCO1 142239Z 09013KT 13/02 A3013 RMK A01 T01310022  RH  047%=      5-min Rain = 0
KCO1 142240Z 09015KT 13/02 A3013 RMK A01 T01310021  RH  047%=      5-min Rain = 0
KCO1 142241Z 09015KT 13/02 A3013 RMK A01 T01290020  RH  047%=      5-min Rain = 0
KCO1 142242Z 10011G17KT 13/02 A3013 RMK A01 T01280021  RH  048%=      5-min Rain = 0
KCO1 142243Z 10013KT 13/02 A3012 RMK A01 T01290022  RH  048%=      5-min Rain = 0
KCO1 142244Z 10013KT 13/02 A3012 RMK A01 T01300021  RH  048%=      5-min Rain = 0
KCO1 142245Z 10012KT 13/02 A3012 RMK A01 T01300021  RH  047%=      5-min Rain = 0
KCO1 142246Z 10013KT 13/02 A3012 RMK A01 T01300020  RH  047%=      5-min Rain = 0
KCO1 142247Z 10014KT 13/02 A3012 RMK A01 T01290019  RH  047%=      5-min Rain = 0
KCO1 142248Z 10014KT 13/02 A3012 RMK A01 T01280019  RH  047%=      5-min Rain = 0
KCO1 142249Z 10010G15KT 13/02 A3012 RMK A01 T01280021  RH  048%=      5-min Rain = 0
KCO1 142250Z 11016KT 13/02 A3012 RMK A01 T01300021  RH  047%=      5-min Rain = 0
KCO1 142251Z 11014KT 13/02 A3012 RMK A01 T01290018  RH  047%=      5-min Rain = 0
KCO1 142252Z 11014KT 13/02 A3012 RMK A01 T01280019  RH  047%=      5-min Rain = 0
KCO1 142253Z 11014KT 13/02 A3012 RMK A01 T01270019  RH  048%=      5-min Rain = 0
KCO1 142254Z 10015KT 13/02 A3012 RMK A01 T01280019  RH  048%=      5-min Rain = 0
KCO1 142255Z 10012KT 13/02 A3012 RMK A01 T01280019  RH  048%=      5-min Rain = 0
KCO1 142256Z 09012G18KT 13/02 A3012 RMK A01 T01280020  RH  048%=      5-min Rain = 0
KCO1 142257Z 09015KT 13/02 A3012 RMK A01 T01280020  RH  048%=      5-min Rain = 0
KCO1 142258Z 09014KT 13/02 A3012 RMK A01 T01280020  RH  048%=      5-min Rain = 0
KCO1 142259Z 10012KT 13/02 A3012 RMK A01 T01280021  RH  048%=      5-min Rain = 0
KCO1 142300Z 09013KT 13/02 A3012 RMK A01 T01280022  RH  048%=      5-min Rain = 0
KCO1 142301Z 09012KT 13/02 A3012 RMK A01 T01280021  RH  048%=      5-min Rain = 0
KCO1 142302Z 10017KT 13/02 A3012 RMK A01 T01280021  RH  048%=      5-min Rain = 0
KCO1 142303Z 10017KT 13/02 A3012 RMK A01 T01260017  RH  047%=      5-min Rain = 0
KCO1 142304Z 10013KT 13/02 A3012 RMK A01 T01250018  RH  048%=      5-min Rain = 0
KCO1 142305Z 10014KT 13/02 A3012 RMK A01 T01250018  RH  048%=      5-min Rain = 0
KCO1 142306Z 09014KT 13/02 A3012 RMK A01 T01250019  RH  048%=      5-min Rain = 0
KCO1 142307Z 09013KT 13/02 A3012 RMK A01 T01250019  RH  048%=      5-min Rain = 0
KCO1 142308Z 10011KT 13/02 A3012 RMK A01 T01260020  RH  048%=      5-min Rain = 0
KCO1 142309Z 10013KT 13/02 A3012 RMK A01 T01280021  RH  048%=      5-min Rain = 0
KCO1 142310Z 09012G18KT 13/02 A3012 RMK A01 T01280020  RH  048%=      5-min Rain = 0
KCO1 142311Z 10012KT 13/02 A3012 RMK A01 T01280020  RH  048%=      5-min Rain = 0
KCO1 142312Z 10017KT 13/02 A3012 RMK A01 T01280020  RH  048%=      5-min Rain = 0
KCO1 142313Z 10016KT 13/02 A3012 RMK A01 T01270018  RH  047%=      5-min Rain = 0
KCO1 142314Z 10016KT 13/02 A3012 RMK A01 T01250017  RH  048%=      5-min Rain = 0
KCO1 142315Z 10016KT 12/02 A3012 RMK A01 T01240017  RH  048%=      5-min Rain = 0
KCO1 142316Z 10014KT 12/02 A3012 RMK A01 T01240017  RH  048%=      5-min Rain = 0
KCO1 142317Z 09012KT 12/02 A3012 RMK A01 T01240018  RH  048%=      5-min Rain = 0
KCO1 142318Z 09013KT 13/02 A3012 RMK A01 T01250020  RH  049%=      5-min Rain = 0
KCO1 142319Z 10015KT 13/02 A3012 RMK A01 T01260019  RH  048%=      5-min Rain = 0
KCO1 142320Z 10014KT 13/02 A3012 RMK A01 T01250018  RH  048%=      5-min Rain = 0
KCO1 142321Z 09013KT 12/02 A3012 RMK A01 T01240018  RH  048%=      5-min Rain = 0
KCO1 142322Z 10014KT 12/02 A3012 RMK A01 T01240018  RH  048%=      5-min Rain = 0
KCO1 142323Z 10015KT 12/02 A3012 RMK A01 T01240018  RH  048%=      5-min Rain = 0
KCO1 142324Z 10012KT 12/02 A3012 RMK A01 T01230017  RH  048%=      5-min Rain = 0
KCO1 142325Z 10014G19KT 12/02 A3012 RMK A01 T01230018  RH  049%=      5-min Rain = 0
KCO1 142326Z 10013G18KT 12/02 A3012 RMK A01 T01230017  RH  048%=      5-min Rain = 0
KCO1 142327Z 10010KT 12/02 A3012 RMK A01 T01240017  RH  048%=      5-min Rain = 0
KCO1 142328Z 09010KT 12/02 A3012 RMK A01 T01240018  RH  048%=      5-min Rain = 0
KCO1 142329Z 09012KT 13/02 A3012 RMK A01 T01250019  RH  048%=      5-min Rain = 0
KCO1 142330Z 10014KT 13/02 A3012 RMK A01 T01250018  RH  048%=      5-min Rain = 0
KCO1 142331Z 10011KT 12/02 A3012 RMK A01 T01240017  RH  048%=      5-min Rain = 0
KCO1 142332Z 10012KT 12/02 A3012 RMK A01 T01240018  RH  048%=      5-min Rain = 0
KCO1 142333Z 10013KT 12/02 A3012 RMK A01 T01240017  RH  048%=      5-min Rain = 0
KCO1 142334Z 09014KT 12/02 A3012 RMK A01 T01240017  RH  048%=      5-min Rain = 0
KCO1 142335Z 10011KT 12/02 A3012 RMK A01 T01240017  RH  048%=      5-min Rain = 0
KCO1 142336Z 09013KT 13/02 A3011 RMK A01 T01250018  RH  048%=      5-min Rain = 0
KCO1 142337Z 10014KT 13/02 A3011 RMK A01 T01250017  RH  048%=      5-min Rain = 0
KCO1 142338Z 09013G18KT 12/02 A3011 RMK A01 T01240016  RH  048%=      5-min Rain = 0
KCO1 142339Z 09014KT 12/02 A3011 RMK A01 T01240017  RH  048%=      5-min Rain = 0
KCO1 142340Z 10013KT 12/02 A3011 RMK A01 T01240016  RH  048%=      5-min Rain = 0
KCO1 142341Z 10014KT 12/02 A3011 RMK A01 T01240017  RH  048%=      5-min Rain = 0
KCO1 142342Z 10013KT 12/02 A3011 RMK A01 T01240017  RH  048%=      5-min Rain = 0
KCO1 142343Z 10013KT 12/02 A3011 RMK A01 T01230017  RH  048%=      5-min Rain = 0
KCO1 142344Z 10010KT 12/02 A3011 RMK A01 T01230017  RH  048%=      5-min Rain = 0
KCO1 142345Z 09010KT 12/02 A3012 RMK A01 T01240018  RH  049%=      5-min Rain = 0
KCO1 142346Z 09010KT 12/02 A3012 RMK A01 T01240018  RH  048%=      5-min Rain = 0
KCO1 142347Z 09011KT 12/02 A3012 RMK A01 T01240018  RH  048%=      5-min Rain = 0
KCO1 142348Z 10012KT 12/02 A3012 RMK A01 T01240017  RH  048%=      5-min Rain = 0
KCO1 142349Z 09015KT 12/02 A3012 RMK A01 T01240016  RH  048%=      5-min Rain = 0
KCO1 142350Z 09015KT 12/02 A3012 RMK A01 T01230015  RH  048%=      5-min Rain = 0
KCO1 142351Z 09015KT 12/02 A3012 RMK A01 T01220015  RH  048%=      5-min Rain = 0
KCO1 142352Z 09014KT 12/02 A3012 RMK A01 T01210015  RH  048%=      5-min Rain = 0
KCO1 142353Z 09012KT 12/02 A3012 RMK A01 T01210016  RH  049%=      5-min Rain = 0
KCO1 142354Z 09013KT 12/02 A3012 RMK A01 T01210016  RH  049%=      5-min Rain = 0
KCO1 142355Z 09014KT 12/02 A3012 RMK A01 T01210017  RH  049%=      5-min Rain = 0
KCO1 142356Z 09013KT 12/02 A3012 RMK A01 T01200016  RH  049%=      5-min Rain = 0
KCO1 142357Z 09014KT 12/02 A3012 RMK A01 T01200016  RH  049%=      5-min Rain = 0
KCO1 142358Z 09013KT 12/02 A3012 RMK A01 T01190016  RH  049%=      5-min Rain = 0
KCO1 142359Z 10014KT 12/02 A3012 RMK A01 T01190016  RH  049%=      5-min Rain = 0
KCO1 150000Z 10013KT 12/02 A3012 RMK A01 T01190016  RH  049%=      5-min Rain = 0
KCO1 150001Z 09013KT 12/02 A3012 RMK A01 T01190016  RH  049%=      5-min Rain = 0
KCO1 150002Z 10011KT 12/02 A3012 RMK A01 T01190016  RH  049%=      5-min Rain = 0
KCO1 150003Z 09012KT 12/02 A3012 RMK A01 T01190016  RH  049%=      5-min Rain = 0
KCO1 150004Z 09011KT 12/02 A3012 RMK A01 T01180016  RH  050%=      5-min Rain = 0
KCO1 150005Z 09012KT 12/02 A3012 RMK A01 T01180016  RH  050%=      5-min Rain = 0
KCO1 150006Z 09011KT 12/02 A3012 RMK A01 T01180016  RH  050%=      5-min Rain = 0
KCO1 150007Z 09010G16KT 12/02 A3012 RMK A01 T01170017  RH  050%=      5-min Rain = 0
KCO1 150008Z 09014KT 12/02 A3012 RMK A01 T01170017  RH  050%=      5-min Rain = 0
KCO1 150009Z 10013G18KT 12/02 A3012 RMK A01 T01170016  RH  050%=      5-min Rain = 0
KCO1 150010Z 10011G17KT 12/02 A3012 RMK A01 T01170016  RH  050%=      5-min Rain = 0
KCO1 150011Z 10014KT 12/02 A3012 RMK A01 T01160016  RH  050%=      5-min Rain = 0
KCO1 150012Z 10014KT 12/02 A3012 RMK A01 T01160016  RH  050%=      5-min Rain = 0
KCO1 150013Z 10011KT 12/02 A3012 RMK A01 T01160016  RH  050%=      5-min Rain = 0
KCO1 150014Z 09012KT 12/02 A3012 RMK A01 T01160016  RH  051%=      5-min Rain = 0
KCO1 150015Z 10012KT 12/02 A3012 RMK A01 T01150016  RH  051%=      5-min Rain = 0
KCO1 150016Z 10011KT 12/02 A3012 RMK A01 T01150016  RH  051%=      5-min Rain = 0
KCO1 150017Z 10011KT 11/02 A3012 RMK A01 T01140016  RH  051%=      5-min Rain = 0
KCO1 150018Z 10009KT 11/02 A3012 RMK A01 T01140016  RH  051%=      5-min Rain = 0
KCO1 150019Z 10014KT 11/02 A3012 RMK A01 T01130016  RH  051%=      5-min Rain = 0
KCO1 150020Z 10015KT 11/02 A3012 RMK A01 T01130015  RH  051%=      5-min Rain = 0
KCO1 150021Z 10014KT 11/02 A3012 RMK A01 T01130015  RH  051%=      5-min Rain = 0
KCO1 150022Z 10014KT 11/02 A3012 RMK A01 T01120015  RH  051%=      5-min Rain = 0
KCO1 150023Z 10012G17KT 11/02 A3012 RMK A01 T01120015  RH  051%=      5-min Rain = 0
KCO1 150024Z 10014G19KT 11/02 A3012 RMK A01 T01110015  RH  052%=      5-min Rain = 0
KCO1 150025Z 10013KT 11/02 A3012 RMK A01 T01110015  RH  052%=      5-min Rain = 0
KCO1 150026Z 10014KT 11/02 A3012 RMK A01 T01110015  RH  052%=      5-min Rain = 0
KCO1 150027Z 11012KT 11/02 A3012 RMK A01 T01110015  RH  052%=      5-min Rain = 0
KCO1 150028Z 11011KT 11/02 A3012 RMK A01 T01100015  RH  052%=      5-min Rain = 0
KCO1 150029Z 11010KT 11/02 A3012 RMK A01 T01100015  RH  052%=      5-min Rain = 0
KCO1 150030Z 10010KT 11/02 A3012 RMK A01 T01090015  RH  052%=      5-min Rain = 0
KCO1 150031Z 10011KT 11/02 A3012 RMK A01 T01080015  RH  053%=      5-min Rain = 0
KCO1 150032Z 10014KT 11/02 A3012 RMK A01 T01080015  RH  053%=      5-min Rain = 0
KCO1 150033Z 10013KT 11/02 A3012 RMK A01 T01080015  RH  053%=      5-min Rain = 0
KCO1 150034Z 10014KT 11/02 A3012 RMK A01 T01080015  RH  053%=      5-min Rain = 0
KCO1 150035Z 10011KT 11/02 A3012 RMK A01 T01070015  RH  053%=      5-min Rain = 0
KCO1 150036Z 10009KT 11/02 A3012 RMK A01 T01070015  RH  053%=      5-min Rain = 0
KCO1 150037Z 10009KT 11/02 A3012 RMK A01 T01060016  RH  053%=      5-min Rain = 0
KCO1 150038Z 10009KT 11/02 A3012 RMK A01 T01050016  RH  054%=      5-min Rain = 0
KCO1 150039Z 09009KT 11/02 A3012 RMK A01 T01050016  RH  054%=      5-min Rain = 0
KCO1 150040Z 09011KT 10/02 A3012 RMK A01 T01040016  RH  054%=      5-min Rain = 0
KCO1 150041Z 10011KT 10/02 A3012 RMK A01 T01040016  RH  054%=      5-min Rain = 0
KCO1 150042Z 10010KT 10/02 A3012 RMK A01 T01040016  RH  055%=      5-min Rain = 0
KCO1 150043Z 10011KT 10/02 A3012 RMK A01 T01030016  RH  055%=      5-min Rain = 0
KCO1 150044Z 10013KT 10/02 A3012 RMK A01 T01030016  RH  055%=      5-min Rain = 0
KCO1 150045Z 10011KT 10/02 A3012 RMK A01 T01030016  RH  055%=      5-min Rain = 0
KCO1 150046Z 10013KT 10/02 A3012 RMK A01 T01030016  RH  055%=      5-min Rain = 0
KCO1 150047Z 10013KT 10/02 A3012 RMK A01 T01020016  RH  055%=      5-min Rain = 0
KCO1 150048Z 10012KT 10/02 A3012 RMK A01 T01020017  RH  055%=      5-min Rain = 0
KCO1 150049Z 10011KT 10/02 A3012 RMK A01 T01020016  RH  055%=      5-min Rain = 0
KCO1 150050Z 10011KT 10/02 A3012 RMK A01 T01010017  RH  056%=      5-min Rain = 0
KCO1 150051Z 10011KT 10/02 A3012 RMK A01 T01010017  RH  056%=      5-min Rain = 0
KCO1 150052Z 10011KT 10/02 A3012 RMK A01 T01010017  RH  056%=      5-min Rain = 0
KCO1 150053Z 10010KT 10/02 A3012 RMK A01 T01010017  RH  056%=      5-min Rain = 0
KCO1 150054Z 10010KT 10/02 A3012 RMK A01 T01010017  RH  056%=      5-min Rain = 0
KCO1 150055Z 10010KT 10/02 A3012 RMK A01 T01000017  RH  056%=      5-min Rain = 0
KCO1 150056Z 10010KT 10/02 A3012 RMK A01 T01000017  RH  056%=      5-min Rain = 0
KCO1 150057Z 10010KT 10/02 A3012 RMK A01 T00990017  RH  057%=      5-min Rain = 0
KCO1 150058Z 10010KT 10/02 A3012 RMK A01 T00990017  RH  057%=      5-min Rain = 0
KCO1 150059Z 11012KT 10/02 A3012 RMK A01 T00980017  RH  057%=      5-min Rain = 0
KCO1 150100Z 11012KT 10/02 A3012 RMK A01 T00980017  RH  057%=      5-min Rain = 0
KCO1 150101Z 11012KT 10/02 A3012 RMK A01 T00980017  RH  057%=      5-min Rain = 0
KCO1 150102Z 11013KT 10/02 A3013 RMK A01 T00990017  RH  057%=      5-min Rain = 0
KCO1 150103Z 11011KT 10/02 A3013 RMK A01 T00990018  RH  057%=      5-min Rain = 0
KCO1 150104Z 10011KT 10/02 A3013 RMK A01 T00990017  RH  057%=      5-min Rain = 0
KCO1 150105Z 10009KT 10/02 A3013 RMK A01 T00990017  RH  057%=      5-min Rain = 0
KCO1 150106Z 10009KT 10/02 A3013 RMK A01 T00980017  RH  057%=      5-min Rain = 0
KCO1 150107Z 10009KT 10/02 A3013 RMK A01 T00980017  RH  057%=      5-min Rain = 0
KCO1 150108Z 11010KT 10/02 A3013 RMK A01 T00970018  RH  057%=      5-min Rain = 0
KCO1 150109Z 10012KT 10/02 A3013 RMK A01 T00970018  RH  058%=      5-min Rain = 0
KCO1 150110Z 11012KT 10/02 A3013 RMK A01 T00960018  RH  058%=      5-min Rain = 0
KCO1 150111Z 11011KT 10/02 A3013 RMK A01 T00960018  RH  058%=      5-min Rain = 0
KCO1 150112Z 11013G18KT 10/02 A3013 RMK A01 T00960017  RH  058%=      5-min Rain = 0
KCO1 150113Z 11013KT 10/02 A3013 RMK A01 T00960018  RH  058%=      5-min Rain = 0
KCO1 150114Z 11014KT 10/02 A3012 RMK A01 T00970018  RH  058%=      5-min Rain = 0
KCO1 150115Z 11012KT 10/02 A3012 RMK A01 T00970018  RH  058%=      5-min Rain = 0
KCO1 150116Z 11013KT 10/02 A3012 RMK A01 T00970018  RH  058%=      5-min Rain = 0
KCO1 150117Z 11014KT 10/02 A3012 RMK A01 T00970019  RH  058%=      5-min Rain = 0
KCO1 150118Z 11013G18KT 10/02 A3012 RMK A01 T00970019  RH  058%=      5-min Rain = 0
KCO1 150119Z 11014KT 10/02 A3012 RMK A01 T00970019  RH  058%=      5-min Rain = 0
KCO1 150120Z 11013KT 10/02 A3012 RMK A01 T00970019  RH  058%=      5-min Rain = 0
KCO1 150121Z 10013KT 10/02 A3012 RMK A01 T00970019  RH  058%=      5-min Rain = 0
KCO1 150122Z 10014KT 10/02 A3013 RMK A01 T00960019  RH  059%=      5-min Rain = 0
KCO1 150123Z 11012KT 10/02 A3013 RMK A01 T00960019  RH  059%=      5-min Rain = 0
KCO1 150124Z 11011KT 10/02 A3013 RMK A01 T00960019  RH  059%=      5-min Rain = 0
KCO1 150125Z 11011KT 10/02 A3013 RMK A01 T00950019  RH  059%=      5-min Rain = 0
KCO1 150126Z 11013G18KT 10/02 A3013 RMK A01 T00950019  RH  059%=      5-min Rain = 0
KCO1 150127Z 11014KT 10/02 A3013 RMK A01 T00950020  RH  059%=      5-min Rain = 0
KCO1 150128Z 10011KT 10/02 A3013 RMK A01 T00950020  RH  059%=      5-min Rain = 0
KCO1 150129Z 11012G18KT 10/02 A3012 RMK A01 T00950020  RH  059%=      5-min Rain = 0
KCO1 150130Z 11013KT 09/02 A3013 RMK A01 T00940020  RH  060%=      5-min Rain = 0
KCO1 150131Z 11014KT 10/02 A3012 RMK A01 T00950020  RH  060%=      5-min Rain = 0
KCO1 150132Z 11012KT 09/02 A3013 RMK A01 T00940020  RH  060%=      5-min Rain = 0
KCO1 150133Z 11012KT 10/02 A3012 RMK A01 T00950020  RH  060%=      5-min Rain = 0
KCO1 150134Z 11014KT 10/02 A3012 RMK A01 T00950020  RH  060%=      5-min Rain = 0
KCO1 150135Z 11014G20KT 10/02 A3012 RMK A01 T00950021  RH  060%=      5-min Rain = 0
KCO1 150136Z 11013KT 09/02 A3012 RMK A01 T00940021  RH  060%=      5-min Rain = 0
KCO1 150137Z 11014KT 09/02 A3012 RMK A01 T00940021  RH  060%=      5-min Rain = 0
KCO1 150138Z 11016KT 09/02 A3012 RMK A01 T00940021  RH  060%=      5-min Rain = 0
KCO1 150139Z 11014KT 09/02 A3012 RMK A01 T00940021  RH  060%=      5-min Rain = 0
KCO1 150140Z 11014KT 09/02 A3012 RMK A01 T00940021  RH  060%=      5-min Rain = 0
KCO1 150141Z 11014KT 09/02 A3012 RMK A01 T00940021  RH  060%=      5-min Rain = 0
KCO1 150142Z 11014KT 09/02 A3012 RMK A01 T00940021  RH  060%=      5-min Rain = 0
KCO1 150143Z 11013KT 09/02 A3012 RMK A01 T00930021  RH  061%=      5-min Rain = 0
KCO1 150144Z 11014KT 09/02 A3012 RMK A01 T00930021  RH  061%=      5-min Rain = 0
KCO1 150145Z 11013KT 09/02 A3013 RMK A01 T00930021  RH  061%=      5-min Rain = 0
KCO1 150146Z 11012KT 09/02 A3013 RMK A01 T00920021  RH  061%=      5-min Rain = 0
KCO1 150147Z 11012KT 09/02 A3013 RMK A01 T00910021  RH  061%=      5-min Rain = 0
KCO1 150148Z 11012G18KT 09/02 A3012 RMK A01 T00910022  RH  062%=      5-min Rain = 0
KCO1 150149Z 11013KT 09/02 A3013 RMK A01 T00910022  RH  062%=      5-min Rain = 0
KCO1 150150Z 12013KT 09/02 A3013 RMK A01 T00910022  RH  062%=      5-min Rain = 0
KCO1 150151Z 11014G19KT 09/02 A3013 RMK A01 T00910022  RH  062%=      5-min Rain = 0
KCO1 150152Z 11012G17KT 09/02 A3013 RMK A01 T00910022  RH  062%=      5-min Rain = 0
KCO1 150153Z 11013KT 09/02 A3012 RMK A01 T00910022  RH  062%=      5-min Rain = 0
KCO1 150154Z 11012KT 09/02 A3012 RMK A01 T00900022  RH  062%=      5-min Rain = 0
KCO1 150155Z 11013KT 09/02 A3013 RMK A01 T00900022  RH  062%=      5-min Rain = 0
KCO1 150156Z 11015KT 09/02 A3013 RMK A01 T00900022  RH  062%=      5-min Rain = 0
KCO1 150157Z 11013KT 09/02 A3013 RMK A01 T00900022  RH  062%=      5-min Rain = 0
KCO1 150158Z 11012KT 09/02 A3013 RMK A01 T00900022  RH  062%=      5-min Rain = 0
KCO1 150159Z 11015KT 09/02 A3013 RMK A01 T00890022  RH  063%=      5-min Rain = 0
KCO1 150200Z 11015G22KT 09/02 A3013 RMK A01 T00890022  RH  063%=      5-min Rain = 0
KCO1 150201Z 11015KT 09/02 A3013 RMK A01 T00900022  RH  062%=      5-min Rain = 0
KCO1 150202Z 11015KT 09/02 A3013 RMK A01 T00900022  RH  062%=      5-min Rain = 0
KCO1 150203Z 11015KT 09/02 A3013 RMK A01 T00900022  RH  062%=      5-min Rain = 0
KCO1 150204Z 11014KT 09/02 A3013 RMK A01 T00900022  RH  063%=      5-min Rain = 0
KCO1 150205Z 11015G20KT 09/02 A3013 RMK A01 T00900022  RH  063%=      5-min Rain = 0
KCO1 150206Z 12016KT 09/02 A3013 RMK A01 T00900022  RH  063%=      5-min Rain = 0
KCO1 150207Z 11015KT 09/02 A3013 RMK A01 T00900023  RH  063%=      5-min Rain = 0
KCO1 150208Z 11016KT 09/02 A3013 RMK A01 T00890022  RH  063%=      5-min Rain = 0
KCO1 150209Z 11017KT 09/02 A3013 RMK A01 T00900022  RH  063%=      5-min Rain = 0
KCO1 150210Z 11015KT 09/02 A3013 RMK A01 T00890022  RH  063%=      5-min Rain = 0
KCO1 150211Z 12016KT 09/02 A3013 RMK A01 T00890022  RH  063%=      5-min Rain = 0
KCO1 150212Z 11014KT 09/02 A3013 RMK A01 T00900022  RH  063%=      5-min Rain = 0
KCO1 150213Z 11014KT 09/02 A3013 RMK A01 T00890022  RH  063%=      5-min Rain = 0
KCO1 150214Z 11014KT 09/02 A3013 RMK A01 T00880022  RH  063%=      5-min Rain = 0
KCO1 150215Z 11014KT 09/02 A3013 RMK A01 T00880022  RH  063%=      5-min Rain = 0
KCO1 150216Z 11015KT 09/02 A3013 RMK A01 T00880022  RH  063%=      5-min Rain = 0
KCO1 150217Z 11015G20KT 09/02 A3013 RMK A01 T00880022  RH  063%=      5-min Rain = 0
KCO1 150218Z 11014G19KT 09/02 A3014 RMK A01 T00880022  RH  063%=      5-min Rain = 0
KCO1 150219Z 11015KT 09/02 A3014 RMK A01 T00870022  RH  064%=      5-min Rain = 0
KCO1 150220Z 11015KT 09/02 A3014 RMK A01 T00870022  RH  064%=      5-min Rain = 0
KCO1 150221Z 11014KT 09/02 A3014 RMK A01 T00870022  RH  064%=      5-min Rain = 0
KCO1 150222Z 11014KT 09/02 A3014 RMK A01 T00870022  RH  064%=      5-min Rain = 0
KCO1 150223Z 11014KT 09/02 A3014 RMK A01 T00870023  RH  064%=      5-min Rain = 0
KCO1 150224Z 12017KT 09/02 A3014 RMK A01 T00860022  RH  064%=      5-min Rain = 0
KCO1 150225Z 11015KT 09/02 A3014 RMK A01 T00860022  RH  064%=      5-min Rain = 0
KCO1 150226Z 11013KT 09/02 A3014 RMK A01 T00860022  RH  064%=      5-min Rain = 0
KCO1 150227Z 11015KT 09/02 A3014 RMK A01 T00860022  RH  064%=      5-min Rain = 0
KCO1 150228Z 12015G21KT 09/02 A3014 RMK A01 T00860022  RH  064%=      5-min Rain = 0
KCO1 150229Z 12014KT 09/02 A3014 RMK A01 T00850022  RH  065%=      5-min Rain = 0
KCO1 150230Z 12015KT 09/02 A3014 RMK A01 T00860023  RH  065%=      5-min Rain = 0
KCO1 150231Z 12015KT 09/02 A3014 RMK A01 T00850022  RH  065%=      5-min Rain = 0
KCO1 150232Z 12013G18KT 09/02 A3014 RMK A01 T00850022  RH  065%=      5-min Rain = 0
KCO1 150233Z 12015KT 09/02 A3014 RMK A01 T00850022  RH  065%=      5-min Rain = 0
KCO1 150234Z 11015KT 08/02 A3014 RMK A01 T00840022  RH  065%=      5-min Rain = 0
KCO1 150235Z 12015KT 08/02 A3014 RMK A01 T00840023  RH  065%=      5-min Rain = 0
KCO1 150236Z 12016KT 09/02 A3014 RMK A01 T00850023  RH  065%=      5-min Rain = 0
KCO1 150237Z 12015KT 09/02 A3014 RMK A01 T00850023  RH  065%=      5-min Rain = 0
KCO1 150238Z 12015G20KT 08/02 A3014 RMK A01 T00840023  RH  065%=      5-min Rain = 0
KCO1 150239Z 12014KT 08/02 A3014 RMK A01 T00840022  RH  065%=      5-min Rain = 0
KCO1 150240Z 12016KT 08/02 A3014 RMK A01 T00840022  RH  065%=      5-min Rain = 0
KCO1 150241Z 12015KT 08/02 A3014 RMK A01 T00830022  RH  065%=      5-min Rain = 0
KCO1 150242Z 12016KT 08/02 A3014 RMK A01 T00840022  RH  065%=      5-min Rain = 0
KCO1 150243Z 12016KT 08/02 A3014 RMK A01 T00830022  RH  065%=      5-min Rain = 0
KCO1 150244Z 12016KT 08/02 A3014 RMK A01 T00840023  RH  065%=      5-min Rain = 0
KCO1 150245Z 12016KT 08/02 A3014 RMK A01 T00840022  RH  065%=      5-min Rain = 0
KCO1 150246Z 12016KT 08/02 A3014 RMK A01 T00840022  RH  065%=      5-min Rain = 0
KCO1 150247Z 12017KT 08/02 A3014 RMK A01 T00840022  RH  065%=      5-min Rain = 0
KCO1 150248Z 12015KT 08/02 A3014 RMK A01 T00830022  RH  065%=      5-min Rain = 0
KCO1 150249Z 12016KT 08/02 A3014 RMK A01 T00830022  RH  065%=      5-min Rain = 0
KCO1 150250Z 12016KT 08/02 A3014 RMK A01 T00840023  RH  066%=      5-min Rain = 0
KCO1 150251Z 12016G21KT 08/02 A3014 RMK A01 T00830023  RH  066%=      5-min Rain = 0
KCO1 150252Z 12018KT 08/02 A3014 RMK A01 T00830023  RH  066%=      5-min Rain = 0
KCO1 150253Z 13015KT 08/02 A3014 RMK A01 T00830023  RH  066%=      5-min Rain = 0
KCO1 150254Z 13015KT 08/02 A3014 RMK A01 T00830023  RH  066%=      5-min Rain = 0
KCO1 150255Z 12016KT 08/02 A3014 RMK A01 T00830022  RH  066%=      5-min Rain = 0
KCO1 150256Z 12014KT 08/02 A3014 RMK A01 T00830023  RH  066%=      5-min Rain = 0
KCO1 150257Z 12016KT 08/02 A3014 RMK A01 T00820023  RH  066%=      5-min Rain = 0
KCO1 150258Z 12015KT 08/02 A3014 RMK A01 T00820023  RH  066%=      5-min Rain = 0
KCO1 150259Z 12016KT 08/02 A3014 RMK A01 T00820023  RH  066%=      5-min Rain = 0
KCO1 150300Z 12015KT 08/02 A3014 RMK A01 T00820023  RH  066%=      5-min Rain = 0
KCO1 150301Z 12016KT 08/02 A3014 RMK A01 T00820023  RH  066%=      5-min Rain = 0
KCO1 150302Z 13017KT 08/02 A3014 RMK A01 T00820023  RH  066%=      5-min Rain = 0
KCO1 150303Z 12014KT 08/02 A3014 RMK A01 T00820023  RH  066%=      5-min Rain = 0
KCO1 150304Z 12016KT 08/02 A3014 RMK A01 T00820023  RH  066%=      5-min Rain = 0
KCO1 150305Z 13015KT 08/02 A3014 RMK A01 T00810023  RH  066%=      5-min Rain = 0
KCO1 150306Z 13014KT 08/02 A3014 RMK A01 T00820023  RH  067%=      5-min Rain = 0
KCO1 150307Z 12014KT 08/02 A3015 RMK A01 T00810023  RH  067%=      5-min Rain = 0
KCO1 150308Z 13012KT 08/02 A3015 RMK A01 T00810023  RH  067%=      5-min Rain = 0
KCO1 150309Z 13014KT 08/02 A3015 RMK A01 T00800023  RH  067%=      5-min Rain = 0
KCO1 150310Z 13014G19KT 08/02 A3015 RMK A01 T00800023  RH  067%=      5-min Rain = 0
KCO1 150311Z 12015KT 08/02 A3015 RMK A01 T00800024  RH  067%=      5-min Rain = 0
KCO1 150312Z 13012KT 08/02 A3015 RMK A01 T00800023  RH  067%=      5-min Rain = 0
KCO1 150313Z 13013KT 08/02 A3015 RMK A01 T00800023  RH  067%=      5-min Rain = 0
KCO1 150314Z 12014KT 08/02 A3015 RMK A01 T00790023  RH  068%=      5-min Rain = 0
KCO1 150315Z 13014KT 08/02 A3015 RMK A01 T00790023  RH  068%=      5-min Rain = 0
KCO1 150316Z 13016KT 08/02 A3015 RMK A01 T00790023  RH  068%=      5-min Rain = 0
KCO1 150317Z 13013KT 08/02 A3015 RMK A01 T00800024  RH  068%=      5-min Rain = 0
KCO1 150318Z 13015KT 08/02 A3015 RMK A01 T00800023  RH  068%=      5-min Rain = 0
KCO1 150319Z 13012KT 08/02 A3015 RMK A01 T00800023  RH  068%=      5-min Rain = 0
KCO1 150320Z 13013G18KT 08/02 A3015 RMK A01 T00800024  RH  068%=      5-min Rain = 0
KCO1 150321Z 13014KT 08/02 A3015 RMK A01 T00790023  RH  068%=      5-min Rain = 0
KCO1 150322Z 13011KT 08/02 A3015 RMK A01 T00790023  RH  068%=      5-min Rain = 0
KCO1 150323Z 13013KT 08/02 A3015 RMK A01 T00780023  RH  068%=      5-min Rain = 0
KCO1 150324Z 13012KT 08/02 A3015 RMK A01 T00780023  RH  068%=      5-min Rain = 0
KCO1 150325Z 13013KT 08/02 A3015 RMK A01 T00780024  RH  069%=      5-min Rain = 0
KCO1 150326Z 13013KT 08/02 A3015 RMK A01 T00770023  RH  069%=      5-min Rain = 0
KCO1 150327Z 13012KT 08/02 A3015 RMK A01 T00770023  RH  069%=      5-min Rain = 0
KCO1 150328Z 13011KT 08/02 A3015 RMK A01 T00770024  RH  069%=      5-min Rain = 0
KCO1 150329Z 13012KT 08/02 A3015 RMK A01 T00770023  RH  069%=      5-min Rain = 0
KCO1 150330Z 13012KT 08/02 A3015 RMK A01 T00770024  RH  069%=      5-min Rain = 0
KCO1 150331Z 13014KT 08/02 A3015 RMK A01 T00770024  RH  069%=      5-min Rain = 0
KCO1 150332Z 13016KT 08/02 A3015 RMK A01 T00770024  RH  069%=      5-min Rain = 0
KCO1 150333Z 13015KT 08/02 A3015 RMK A01 T00780024  RH  069%=      5-min Rain = 0
KCO1 150334Z 13014KT 08/02 A3015 RMK A01 T00780024  RH  069%=      5-min Rain = 0
KCO1 150335Z 13013KT 08/02 A3015 RMK A01 T00780024  RH  069%=      5-min Rain = 0
KCO1 150336Z 13013KT 08/02 A3015 RMK A01 T00780024  RH  069%=      5-min Rain = 0
KCO1 150337Z 13014KT 08/02 A3015 RMK A01 T00790024  RH  069%=      5-min Rain = 0
KCO1 150338Z 13014KT 08/02 A3015 RMK A01 T00780024  RH  069%=      5-min Rain = 0
KCO1 150339Z 13015KT 08/03 A3015 RMK A01 T00790025  RH  069%=      5-min Rain = 0
KCO1 150340Z 13014KT 08/02 A3015 RMK A01 T00780024  RH  069%=      5-min Rain = 0
KCO1 150341Z 13015KT 08/03 A3015 RMK A01 T00790025  RH  069%=      5-min Rain = 0
KCO1 150342Z 13013G18KT 08/02 A3015 RMK A01 T00790024  RH  068%=      5-min Rain = 0
KCO1 150343Z 13014KT 08/03 A3015 RMK A01 T00790025  RH  069%=      5-min Rain = 0
KCO1 150344Z 13014KT 08/03 A3015 RMK A01 T00780025  RH  069%=      5-min Rain = 0
KCO1 150345Z 13014KT 08/03 A3015 RMK A01 T00780025  RH  069%=      5-min Rain = 0
KCO1 150346Z 13015KT 08/03 A3015 RMK A01 T00780025  RH  069%=      5-min Rain = 0
KCO1 150347Z 13013KT 08/03 A3015 RMK A01 T00780025  RH  069%=      5-min Rain = 0
KCO1 150348Z 12013G19KT 08/03 A3015 RMK A01 T00780025  RH  069%=      5-min Rain = 0
KCO1 150349Z 13014KT 08/03 A3015 RMK A01 T00780025  RH  069%=      5-min Rain = 0
KCO1 150350Z 13014KT 08/03 A3015 RMK A01 T00780025  RH  069%=      5-min Rain = 0
KCO1 150351Z 13014KT 08/03 A3015 RMK A01 T00780025  RH  069%=      5-min Rain = 0
KCO1 150352Z 13014KT 08/03 A3015 RMK A01 T00780025  RH  069%=      5-min Rain = 0
KCO1 150353Z 13014KT 08/03 A3015 RMK A01 T00770025  RH  069%=      5-min Rain = 0
KCO1 150354Z 13011KT 08/03 A3015 RMK A01 T00780025  RH  069%=      5-min Rain = 0
KCO1 150355Z 13011KT 08/03 A3015 RMK A01 T00780025  RH  069%=      5-min Rain = 0
KCO1 150356Z 13013KT 08/03 A3016 RMK A01 T00770025  RH  070%=      5-min Rain = 0
KCO1 150357Z 13012KT 08/03 A3016 RMK A01 T00770026  RH  070%=      5-min Rain = 0
KCO1 150358Z 13012KT 08/03 A3016 RMK A01 T00770025  RH  070%=      5-min Rain = 0
KCO1 150359Z 13013KT 08/03 A3016 RMK A01 T00770026  RH  070%=      5-min Rain = 0
KCO1 150400Z 13012G17KT 08/03 A3016 RMK A01 T00770025  RH  070%=      5-min Rain = 0
KCO1 150401Z 13012KT 08/03 A3016 RMK A01 T00760026  RH  070%=      5-min Rain = 0
KCO1 150402Z 12014KT 08/03 A3016 RMK A01 T00770026  RH  070%=      5-min Rain = 0
KCO1 150403Z 13014KT 08/03 A3016 RMK A01 T00770026  RH  070%=      5-min Rain = 0
KCO1 150404Z 13011KT 08/03 A3016 RMK A01 T00770026  RH  070%=      5-min Rain = 0
KCO1 150405Z 13011KT 08/03 A3016 RMK A01 T00760026  RH  070%=      5-min Rain = 0
KCO1 150406Z 12013KT 08/03 A3016 RMK A01 T00760026  RH  070%=      5-min Rain = 0
KCO1 150407Z 13013KT 08/03 A3016 RMK A01 T00750025  RH  071%=      5-min Rain = 0
KCO1 150408Z 13012G17KT 08/03 A3015 RMK A01 T00750026  RH  071%=      5-min Rain = 0
KCO1 150409Z 13011KT 08/03 A3015 RMK A01 T00750026  RH  071%=      5-min Rain = 0
KCO1 150410Z 12011KT 08/03 A3015 RMK A01 T00750026  RH  071%=      5-min Rain = 0
KCO1 150411Z 12012KT 08/03 A3015 RMK A01 T00750026  RH  071%=      5-min Rain = 0
KCO1 150412Z 13012KT 08/03 A3015 RMK A01 T00750026  RH  071%=      5-min Rain = 0
KCO1 150413Z 13012KT 08/03 A3015 RMK A01 T00750026  RH  071%=      5-min Rain = 0
KCO1 150414Z 12012KT 08/03 A3015 RMK A01 T00750026  RH  071%=      5-min Rain = 0
KCO1 150415Z 12012KT 07/03 A3015 RMK A01 T00740026  RH  071%=      5-min Rain = 0
KCO1 150416Z 13012KT 07/03 A3015 RMK A01 T00740026  RH  072%=      5-min Rain = 0
KCO1 150417Z 12011KT 07/03 A3015 RMK A01 T00740026  RH  072%=      5-min Rain = 0
KCO1 150418Z 12010KT 07/03 A3015 RMK A01 T00740026  RH  072%=      5-min Rain = 0
KCO1 150419Z 13011KT 07/03 A3015 RMK A01 T00730026  RH  072%=      5-min Rain = 0
KCO1 150420Z 13011KT 07/03 A3015 RMK A01 T00730026  RH  072%=      5-min Rain = 0
KCO1 150421Z 13011KT 07/03 A3015 RMK A01 T00730026  RH  072%=      5-min Rain = 0
KCO1 150422Z 12011KT 07/03 A3015 RMK A01 T00730026  RH  072%=      5-min Rain = 0
KCO1 150423Z 13012KT 07/03 A3015 RMK A01 T00720026  RH  073%=      5-min Rain = 0
KCO1 150424Z 13012KT 07/03 A3015 RMK A01 T00730027  RH  073%=      5-min Rain = 0
KCO1 150425Z 12010KT 07/03 A3015 RMK A01 T00730027  RH  073%=      5-min Rain = 0
KCO1 150426Z 13012KT 07/03 A3015 RMK A01 T00720027  RH  073%=      5-min Rain = 0
KCO1 150427Z 13012KT 07/03 A3015 RMK A01 T00720027  RH  073%=      5-min Rain = 0
KCO1 150428Z 13012KT 07/03 A3015 RMK A01 T00720027  RH  073%=      5-min Rain = 0
KCO1 150429Z 13012KT 07/03 A3015 RMK A01 T00720027  RH  073%=      5-min Rain = 0
KCO1 150430Z 13012KT 07/03 A3015 RMK A01 T00720027  RH  073%=      5-min Rain = 0
KCO1 150431Z 13011KT 07/03 A3015 RMK A01 T00720027  RH  073%=      5-min Rain = 0
KCO1 150432Z 13011KT 07/03 A3015 RMK A01 T00720027  RH  073%=      5-min Rain = 0
KCO1 150433Z 13012KT 07/03 A3015 RMK A01 T00720027  RH  073%=      5-min Rain = 0
KCO1 150434Z 13013KT 07/03 A3015 RMK A01 T00720027  RH  073%=      5-min Rain = 0
KCO1 150435Z 13012KT 07/03 A3015 RMK A01 T00720028  RH  073%=      5-min Rain = 0
KCO1 150436Z 13012KT 07/03 A3015 RMK A01 T00720027  RH  073%=      5-min Rain = 0
KCO1 150437Z 13013KT 07/03 A3015 RMK A01 T00720028  RH  073%=      5-min Rain = 0
KCO1 150438Z 13012KT 07/03 A3015 RMK A01 T00720028  RH  073%=      5-min Rain = 0
KCO1 150439Z 13011KT 07/03 A3015 RMK A01 T00720028  RH  073%=      5-min Rain = 0
KCO1 150440Z 13013KT 07/03 A3015 RMK A01 T00720028  RH  074%=      5-min Rain = 0
KCO1 150441Z 13011KT 07/03 A3015 RMK A01 T00720028  RH  074%=      5-min Rain = 0
KCO1 150442Z 13014KT 07/03 A3015 RMK A01 T00720028  RH  074%=      5-min Rain = 0
KCO1 150443Z 13011KT 07/03 A3015 RMK A01 T00720028  RH  074%=      5-min Rain = 0
KCO1 150444Z 13011KT 07/03 A3015 RMK A01 T00720028  RH  074%=      5-min Rain = 0
KCO1 150445Z 13013G18KT 07/03 A3015 RMK A01 T00710028  RH  074%=      5-min Rain = 0
KCO1 150446Z 13015KT 07/03 A3015 RMK A01 T00710029  RH  074%=      5-min Rain = 0
KCO1 150447Z 13012KT 07/03 A3015 RMK A01 T00720029  RH  074%=      5-min Rain = 0
KCO1 150448Z 13014KT 07/03 A3015 RMK A01 T00720028  RH  074%=      5-min Rain = 0
KCO1 150449Z 13013KT 07/03 A3015 RMK A01 T00720028  RH  074%=      5-min Rain = 0
KCO1 150450Z 13014KT 07/03 A3015 RMK A01 T00720028  RH  074%=      5-min Rain = 0
KCO1 150451Z 13013KT 07/03 A3015 RMK A01 T00720029  RH  074%=      5-min Rain = 0
KCO1 150452Z 13013KT 07/03 A3015 RMK A01 T00720029  RH  074%=      5-min Rain = 0
KCO1 150453Z 13013KT 07/03 A3015 RMK A01 T00720029  RH  074%=      5-min Rain = 0
KCO1 150454Z 13012KT 07/03 A3015 RMK A01 T00720029  RH  074%=      5-min Rain = 0
KCO1 150455Z 13012KT 07/03 A3015 RMK A01 T00720029  RH  074%=      5-min Rain = 0
KCO1 150456Z 13012KT 07/03 A3015 RMK A01 T00710029  RH  074%=      5-min Rain = 0
KCO1 150457Z 13013KT 07/03 A3014 RMK A01 T00710029  RH  074%=      5-min Rain = 0
KCO1 150458Z 13015KT 07/03 A3014 RMK A01 T00710028  RH  074%=      5-min Rain = 0
KCO1 150459Z 13013KT 07/03 A3014 RMK A01 T00710029  RH  075%=      5-min Rain = 0
KCO1 150500Z 13016KT 07/03 A3014 RMK A01 T00710029  RH  075%=      5-min Rain = 0
KCO1 150501Z 13014KT 07/03 A3014 RMK A01 T00710029  RH  075%=      5-min Rain = 0
KCO1 150502Z 13013KT 07/03 A3014 RMK A01 T00710029  RH  074%=      5-min Rain = 0
KCO1 150503Z 13013KT 07/03 A3014 RMK A01 T00710029  RH  074%=      5-min Rain = 0
KCO1 150504Z 13013KT 07/03 A3014 RMK A01 T00710029  RH  074%=      5-min Rain = 0
KCO1 150505Z 13013KT 07/03 A3014 RMK A01 T00710029  RH  075%=      5-min Rain = 0
KCO1 150506Z 13012KT 07/03 A3014 RMK A01 T00710029  RH  075%=      5-min Rain = 0
KCO1 150507Z 13013KT 07/03 A3014 RMK A01 T00710029  RH  075%=      5-min Rain = 0
KCO1 150508Z 13013KT 07/03 A3014 RMK A01 T00710029  RH  075%=      5-min Rain = 0
KCO1 150509Z 13013KT 07/03 A3014 RMK A01 T00710029  RH  075%=      5-min Rain = 0
KCO1 150510Z 13015KT 07/03 A3014 RMK A01 T00710029  RH  075%=      5-min Rain = 0
KCO1 150511Z 13014KT 07/03 A3014 RMK A01 T00710029  RH  075%=      5-min Rain = 0
KCO1 150512Z 13014KT 07/03 A3014 RMK A01 T00700029  RH  075%=      5-min Rain = 0
KCO1 150513Z 13013KT 07/03 A3014 RMK A01 T00700029  RH  075%=      5-min Rain = 0
KCO1 150514Z 12011G16KT 07/03 A3014 RMK A01 T00700029  RH  075%=      5-min Rain = 0
KCO1 150515Z 13012G17KT 07/03 A3014 RMK A01 T00700029  RH  075%=      5-min Rain = 0
KCO1 150516Z 13014KT 07/03 A3014 RMK A01 T00690029  RH  075%=      5-min Rain = 0
KCO1 150517Z 13012KT 07/03 A3014 RMK A01 T00690029  RH  075%=      5-min Rain = 0
KCO1 150518Z 13014KT 07/03 A3014 RMK A01 T00690029  RH  075%=      5-min Rain = 0
KCO1 150519Z 13013KT 07/03 A3014 RMK A01 T00690029  RH  075%=      5-min Rain = 0
KCO1 150520Z 13015KT 07/03 A3014 RMK A01 T00700029  RH  075%=      5-min Rain = 0
KCO1 150521Z 13013KT 07/03 A3014 RMK A01 T00690029  RH  075%=      5-min Rain = 0
KCO1 150522Z 13011KT 07/03 A3014 RMK A01 T00690029  RH  075%=      5-min Rain = 0
KCO1 150523Z 13011KT 07/03 A3014 RMK A01 T00690029  RH  075%=      5-min Rain = 0
KCO1 150524Z 13012KT 07/03 A3014 RMK A01 T00690028  RH  075%=      5-min Rain = 0
KCO1 150525Z 12012KT 07/03 A3014 RMK A01 T00680028  RH  076%=      5-min Rain = 0
KCO1 150526Z 12012KT 07/03 A3014 RMK A01 T00680028  RH  076%=      5-min Rain = 0
KCO1 150527Z 13014KT 07/03 A3014 RMK A01 T00680028  RH  076%=      5-min Rain = 0
KCO1 150528Z 13013KT 07/03 A3014 RMK A01 T00690028  RH  076%=      5-min Rain = 0
KCO1 150529Z 13012KT 07/03 A3014 RMK A01 T00680028  RH  076%=      5-min Rain = 0
KCO1 150530Z 13012KT 07/03 A3014 RMK A01 T00680028  RH  076%=      5-min Rain = 0
KCO1 150531Z 13012KT 07/03 A3014 RMK A01 T00680029  RH  076%=      5-min Rain = 0
KCO1 150532Z 13012KT 07/03 A3014 RMK A01 T00680029  RH  076%=      5-min Rain = 0
KCO1 150533Z 13012KT 07/03 A3014 RMK A01 T00680028  RH  076%=      5-min Rain = 0
KCO1 150534Z 13012KT 07/03 A3014 RMK A01 T00680028  RH  076%=      5-min Rain = 0
KCO1 150535Z 13013KT 07/03 A3014 RMK A01 T00680028  RH  076%=      5-min Rain = 0
KCO1 150536Z 13012G17KT 07/03 A3014 RMK A01 T00680028  RH  076%=      5-min Rain = 0
KCO1 150537Z 13012KT 07/03 A3014 RMK A01 T00680028  RH  076%=      5-min Rain = 0
KCO1 150538Z 13013KT 07/03 A3013 RMK A01 T00670028  RH  076%=      5-min Rain = 0
KCO1 150539Z 13013KT 07/03 A3013 RMK A01 T00680028  RH  076%=      5-min Rain = 0
KCO1 150540Z 13011KT 07/03 A3013 RMK A01 T00680029  RH  076%=      5-min Rain = 0
KCO1 150541Z 13011KT 07/03 A3013 RMK A01 T00680028  RH  076%=      5-min Rain = 0
KCO1 150542Z 13011G16KT 07/03 A3013 RMK A01 T00670028  RH  076%=      5-min Rain = 0
KCO1 150543Z 13012KT 07/03 A3013 RMK A01 T00670028  RH  076%=      5-min Rain = 0
KCO1 150544Z 13012KT 07/03 A3013 RMK A01 T00670028  RH  076%=      5-min Rain = 0
KCO1 150545Z 13012KT 07/03 A3013 RMK A01 T00670028  RH  076%=      5-min Rain = 0
KCO1 150546Z 13013KT 07/03 A3013 RMK A01 T00660028  RH  076%=      5-min Rain = 0
KCO1 150547Z 13012KT 07/03 A3013 RMK A01 T00670028  RH  076%=      5-min Rain = 0
KCO1 150548Z 13013KT 07/03 A3013 RMK A01 T00670028  RH  076%=      5-min Rain = 0
KCO1 150549Z 13013KT 07/03 A3013 RMK A01 T00670028  RH  076%=      5-min Rain = 0
KCO1 150550Z 13012KT 07/03 A3013 RMK A01 T00670028  RH  076%=      5-min Rain = 0
KCO1 150551Z 13012KT 07/03 A3013 RMK A01 T00660027  RH  076%=      5-min Rain = 0
KCO1 150552Z 13013KT 07/03 A3013 RMK A01 T00660027  RH  076%=      5-min Rain = 0
KCO1 150553Z 13013KT 07/03 A3013 RMK A01 T00660027  RH  076%=      5-min Rain = 0
KCO1 150554Z 13012KT 07/03 A3013 RMK A01 T00660027  RH  076%=      5-min Rain = 0
KCO1 150555Z 13010KT 07/03 A3013 RMK A01 T00670027  RH  076%=      5-min Rain = 0
KCO1 150556Z 13012KT 07/03 A3013 RMK A01 T00670027  RH  076%=      5-min Rain = 0
KCO1 150557Z 13011KT 07/03 A3013 RMK A01 T00660027  RH  076%=      5-min Rain = 0
KCO1 150558Z 13011KT 07/03 A3013 RMK A01 T00660028  RH  076%=      5-min Rain = 0
KCO1 150559Z 13010KT 07/03 A3013 RMK A01 T00660027  RH  076%=      5-min Rain = 0

Page generated in 0.1657 seconds.